Time,TemperatureF,DewpointF,PressureIn,WindDirection,WindDirectionDegrees,WindSpeedMPH,WindSpeedGustMPH,Humidity,HourlyPrecipIn,Conditions,Clouds,dailyrainin,SoftwareType,DateUTC
2013-01-25 00:00:00,21.1,8.2,30.54,ESE,119,0.0,0.0,57,0.00,,,0.00,Wunderground v.1.15,2013-01-25 05:00:00,
2013-01-25 00:03:00,21.1,8.2,30.54,ESE,111,0.0,0.0,57,0.00,,,0.00,Wunderground v.1.15,2013-01-25 05:03:00,
2013-01-25 00:05:00,21.1,8.2,30.54,ESE,115,0.0,0.0,57,0.00,,,0.00,Wunderground v.1.15,2013-01-25 05:05:00,
2013-01-25 00:08:00,21.1,7.8,30.53,ESE,116,0.0,0.0,56,0.00,,,0.00,Wunderground v.1.15,2013-01-25 05:08:00,
2013-01-25 00:11:00,21.1,8.2,30.54,ESE,104,0.0,1.0,57,0.00,,,0.00,Wunderground v.1.15,2013-01-25 05:11:00,
2013-01-25 00:13:00,21.1,8.2,30.54,ESE,104,0.0,1.0,57,0.00,,,0.00,Wunderground v.1.15,2013-01-25 05:13:00,
2013-01-25 00:15:00,21.1,8.2,30.54,ESE,104,0.0,1.0,57,0.00,,,0.00,Wunderground v.1.15,2013-01-25 05:15:00,
2013-01-25 00:17:00,21.1,7.8,30.54,ESE,102,0.0,1.0,56,0.00,,,0.00,Wunderground v.1.15,2013-01-25 05:17:00,
2013-01-25 00:20:00,21.1,7.8,30.53,ESE,115,0.0,0.0,56,0.00,,,0.00,Wunderground v.1.15,2013-01-25 05:20:00,
2013-01-25 00:21:00,21.1,8.2,30.54,ESE,115,0.0,0.0,57,0.00,,,0.00,Wunderground v.1.15,2013-01-25 05:21:00,
2013-01-25 00:23:00,21.1,7.8,30.54,ESE,112,0.0,0.0,56,0.00,,,0.00,Wunderground v.1.15,2013-01-25 05:23:00,
2013-01-25 00:27:00,21.1,7.8,30.53,ESE,112,0.0,2.0,56,0.00,,,0.00,Wunderground v.1.15,2013-01-25 05:27:00,
2013-01-25 00:28:00,21.2,8.3,30.54,ESE,111,0.0,2.0,57,0.00,,,0.00,Wunderground v.1.15,2013-01-25 05:28:00,
2013-01-25 00:33:00,21.2,8.3,30.53,ESE,113,0.0,0.0,57,0.00,,,0.00,Wunderground v.1.15,2013-01-25 05:33:00,
2013-01-25 00:34:00,21.1,8.2,30.53,ESE,109,0.0,0.0,57,0.00,,,0.00,Wunderground v.1.15,2013-01-25 05:34:00,
2013-01-25 00:36:00,21.2,8.3,30.53,ESE,107,0.0,1.0,57,0.00,,,0.00,Wunderground v.1.15,2013-01-25 05:36:00,
2013-01-25 00:40:00,21.2,8.3,30.52,ESE,106,0.0,0.0,57,0.00,,,0.00,Wunderground v.1.15,2013-01-25 05:40:00,
2013-01-25 00:41:00,21.2,7.9,30.52,ESE,110,0.0,1.0,56,0.00,,,0.00,Wunderground v.1.15,2013-01-25 05:41:00,
2013-01-25 00:44:00,21.2,8.3,30.51,ESE,113,0.0,1.0,57,0.00,,,0.00,Wunderground v.1.15,2013-01-25 05:44:00,
2013-01-25 00:47:00,21.2,8.3,30.51,ESE,109,1.0,1.0,57,0.00,,,0.00,Wunderground v.1.15,2013-01-25 05:47:00,
2013-01-25 00:48:00,21.2,8.3,30.51,ESE,111,1.0,1.0,57,0.00,,,0.00,Wunderground v.1.15,2013-01-25 05:48:00,
2013-01-25 00:50:00,21.2,8.7,30.51,ESE,123,1.0,1.0,58,0.00,,,0.00,Wunderground v.1.15,2013-01-25 05:50:00,
2013-01-25 00:52:00,21.2,8.3,30.51,ESE,121,1.0,1.0,57,0.00,,,0.00,Wunderground v.1.15,2013-01-25 05:52:00,
2013-01-25 00:55:00,21.2,8.3,30.52,ESE,113,0.0,1.0,57,0.00,,,0.00,Wunderground v.1.15,2013-01-25 05:55:00,
2013-01-25 00:56:00,21.3,8.4,30.52,ESE,112,0.0,1.0,57,0.00,,,0.00,Wunderground v.1.15,2013-01-25 05:56:00,
2013-01-25 00:57:00,21.3,8.4,30.52,ESE,112,0.0,1.0,57,0.00,,,0.00,Wunderground v.1.15,2013-01-25 05:57:00,
2013-01-25 00:58:00,21.2,8.3,30.52,ESE,116,0.0,1.0,57,0.00,,,0.00,Wunderground v.1.15,2013-01-25 05:58:00,
2013-01-25 01:03:00,21.3,8.4,30.51,East,96,0.0,6.0,57,0.00,,,0.00,Wunderground v.1.15,2013-01-25 06:03:00,
2013-01-25 01:08:00,21.3,8.8,30.50,ESE,108,0.0,6.0,58,0.00,,,0.00,Wunderground v.1.15,2013-01-25 06:08:00,
2013-01-25 01:12:00,21.3,8.8,30.50,SE,126,0.0,6.0,58,0.00,,,0.00,Wunderground v.1.15,2013-01-25 06:12:00,
2013-01-25 01:13:00,21.3,8.8,30.49,ESE,114,0.0,6.0,58,0.00,,,0.00,Wunderground v.1.15,2013-01-25 06:13:00,
2013-01-25 01:16:00,21.3,8.8,30.49,ESE,108,0.0,6.0,58,0.00,,,0.00,Wunderground v.1.15,2013-01-25 06:16:00,
2013-01-25 01:17:00,21.3,8.8,30.49,ESE,105,0.0,6.0,58,0.00,,,0.00,Wunderground v.1.15,2013-01-25 06:17:00,
2013-01-25 01:19:00,21.3,8.4,30.49,ESE,109,0.0,6.0,57,0.00,,,0.00,Wunderground v.1.15,2013-01-25 06:19:00,
2013-01-25 01:23:00,21.3,9.2,30.50,ESE,104,0.0,6.0,59,0.00,,,0.00,Wunderground v.1.15,2013-01-25 06:23:00,
2013-01-25 01:24:00,21.3,8.8,30.50,ESE,105,0.0,6.0,58,0.00,,,0.00,Wunderground v.1.15,2013-01-25 06:24:00,
2013-01-25 01:28:00,21.3,8.8,30.50,ESE,118,0.0,6.0,58,0.00,,,0.00,Wunderground v.1.15,2013-01-25 06:28:00,
2013-01-25 01:29:00,21.3,8.4,30.49,ESE,109,0.0,6.0,57,0.00,,,0.00,Wunderground v.1.15,2013-01-25 06:29:00,
2013-01-25 01:31:00,21.3,8.4,30.49,ESE,111,0.0,6.0,57,0.00,,,0.00,Wunderground v.1.15,2013-01-25 06:31:00,
2013-01-25 01:33:00,21.3,8.8,30.49,ESE,105,0.0,6.0,58,0.00,,,0.00,Wunderground v.1.15,2013-01-25 06:33:00,
2013-01-25 01:34:00,21.3,8.4,30.49,ESE,119,0.0,6.0,57,0.00,,,0.00,Wunderground v.1.15,2013-01-25 06:34:00,
2013-01-25 01:36:00,21.3,8.4,30.49,ESE,121,0.0,6.0,57,0.00,,,0.00,Wunderground v.1.15,2013-01-25 06:36:00,
2013-01-25 01:38:00,21.3,8.8,30.48,East,94,0.0,6.0,58,0.00,,,0.00,Wunderground v.1.15,2013-01-25 06:38:00,
2013-01-25 01:39:00,21.3,8.8,30.48,East,101,0.0,6.0,58,0.00,,,0.00,Wunderground v.1.15,2013-01-25 06:39:00,
2013-01-25 01:41:00,21.3,8.8,30.47,East,89,0.0,6.0,58,0.00,,,0.00,Wunderground v.1.15,2013-01-25 06:41:00,
2013-01-25 01:43:00,21.3,8.8,30.47,SE,144,0.0,6.0,58,0.00,,,0.00,Wunderground v.1.15,2013-01-25 06:43:00,
2013-01-25 01:44:00,21.3,8.8,30.47,ESE,110,0.0,6.0,58,0.00,,,0.00,Wunderground v.1.15,2013-01-25 06:44:00,
2013-01-25 01:46:00,21.3,8.4,30.47,ESE,121,0.0,6.0,57,0.00,,,0.00,Wunderground v.1.15,2013-01-25 06:46:00,
2013-01-25 01:49:00,21.2,8.7,30.47,ESE,117,0.0,6.0,58,0.00,,,0.00,Wunderground v.1.15,2013-01-25 06:49:00,
2013-01-25 01:50:00,21.2,8.7,30.47,ESE,117,0.0,6.0,58,0.00,,,0.00,Wunderground v.1.15,2013-01-25 06:50:00,
2013-01-25 01:54:00,21.1,8.6,30.47,SE,134,0.0,6.0,58,0.00,,,0.00,Wunderground v.1.15,2013-01-25 06:54:00,
2013-01-25 01:55:00,21.1,8.6,30.47,SE,132,0.0,6.0,58,0.00,,,0.00,Wunderground v.1.15,2013-01-25 06:55:00,
2013-01-25 01:58:00,21.0,8.5,30.46,SE,128,0.0,6.0,58,0.00,,,0.00,Wunderground v.1.15,2013-01-25 06:58:00,
2013-01-25 02:01:00,20.9,8.8,30.46,SE,124,0.0,5.0,59,0.00,,,0.00,Wunderground v.1.15,2013-01-25 07:01:00,
2013-01-25 02:03:00,20.8,8.7,30.45,ESE,119,0.0,5.0,59,0.00,,,0.00,Wunderground v.1.15,2013-01-25 07:03:00,
2013-01-25 02:06:00,20.8,8.7,30.45,SE,135,0.0,5.0,59,0.00,,,0.00,Wunderground v.1.15,2013-01-25 07:06:00,
2013-01-25 02:07:00,20.8,9.1,30.45,SE,135,0.0,5.0,60,0.00,,,0.00,Wunderground v.1.15,2013-01-25 07:07:00,
2013-01-25 02:08:00,20.8,9.1,30.46,SE,133,0.0,5.0,60,0.00,,,0.00,Wunderground v.1.15,2013-01-25 07:08:00,
2013-01-25 02:12:00,20.8,8.7,30.46,SE,132,0.0,5.0,59,0.00,,,0.00,Wunderground v.1.15,2013-01-25 07:12:00,
2013-01-25 02:15:00,20.8,8.7,30.46,SE,134,0.0,5.0,59,0.00,,,0.00,Wunderground v.1.15,2013-01-25 07:15:00,
2013-01-25 02:16:00,20.8,8.7,30.46,ESE,112,0.0,5.0,59,0.00,,,0.00,Wunderground v.1.15,2013-01-25 07:16:00,
2013-01-25 02:17:00,20.8,8.7,30.46,ESE,105,0.0,5.0,59,0.00,,,0.00,Wunderground v.1.15,2013-01-25 07:17:00,
2013-01-25 02:21:00,20.9,9.2,30.46,ESE,105,0.0,5.0,60,0.00,,,0.00,Wunderground v.1.15,2013-01-25 07:21:00,
2013-01-25 02:22:00,20.9,9.2,30.46,SE,129,0.0,5.0,60,0.00,,,0.00,Wunderground v.1.15,2013-01-25 07:22:00,
2013-01-25 02:26:00,20.9,9.2,30.46,SE,128,0.0,5.0,60,0.00,,,0.00,Wunderground v.1.15,2013-01-25 07:26:00,
2013-01-25 02:27:00,20.9,8.8,30.47,ESE,115,0.0,5.0,59,0.00,,,0.00,Wunderground v.1.15,2013-01-25 07:27:00,
2013-01-25 02:28:00,21.0,9.3,30.47,ESE,115,0.0,5.0,60,0.00,,,0.00,Wunderground v.1.15,2013-01-25 07:28:00,
2013-01-25 02:29:00,21.0,8.9,30.47,ESE,115,0.0,5.0,59,0.00,,,0.00,Wunderground v.1.15,2013-01-25 07:29:00,
2013-01-25 02:32:00,21.0,9.3,30.47,ESE,115,0.0,5.0,60,0.00,,,0.00,Wunderground v.1.15,2013-01-25 07:32:00,
2013-01-25 02:33:00,21.0,8.9,30.46,SE,138,0.0,5.0,59,0.00,,,0.00,Wunderground v.1.15,2013-01-25 07:33:00,
2013-01-25 02:39:00,21.1,9.4,30.46,ESE,107,0.0,5.0,60,0.00,,,0.00,Wunderground v.1.15,2013-01-25 07:39:00,
2013-01-25 02:40:00,21.1,9.0,30.46,ESE,107,0.0,5.0,59,0.00,,,0.00,Wunderground v.1.15,2013-01-25 07:40:00,
2013-01-25 02:42:00,21.1,9.0,30.46,ESE,107,0.0,5.0,59,0.00,,,0.00,Wunderground v.1.15,2013-01-25 07:42:00,
2013-01-25 02:46:00,21.1,9.0,30.46,ESE,109,0.0,5.0,59,0.00,,,0.00,Wunderground v.1.15,2013-01-25 07:46:00,
2013-01-25 02:47:00,21.1,9.0,30.47,SSE,163,0.0,5.0,59,0.00,,,0.00,Wunderground v.1.15,2013-01-25 07:47:00,
2013-01-25 02:49:00,21.2,9.1,30.47,SSE,161,0.0,5.0,59,0.00,,,0.00,Wunderground v.1.15,2013-01-25 07:49:00,
2013-01-25 02:50:00,21.2,9.5,30.47,SSE,161,0.0,5.0,60,0.00,,,0.00,Wunderground v.1.15,2013-01-25 07:50:00,
2013-01-25 02:54:00,21.2,9.1,30.47,SSE,155,0.0,5.0,59,0.00,,,0.00,Wunderground v.1.15,2013-01-25 07:54:00,
2013-01-25 02:55:00,21.2,9.1,30.47,SSE,155,0.0,5.0,59,0.00,,,0.00,Wunderground v.1.15,2013-01-25 07:55:00,
2013-01-25 02:58:00,21.2,9.5,30.47,SSE,155,0.0,5.0,60,0.00,,,0.00,Wunderground v.1.15,2013-01-25 07:58:00,
2013-01-25 02:59:00,21.2,9.5,30.47,ESE,119,0.0,5.0,60,0.00,,,0.00,Wunderground v.1.15,2013-01-25 07:59:00,
2013-01-25 03:00:00,21.2,9.8,30.46,ESE,117,0.0,0.0,61,0.00,,,0.00,Wunderground v.1.15,2013-01-25 08:00:00,
2013-01-25 03:03:00,21.2,9.8,30.46,ESE,113,0.0,0.0,61,0.00,,,0.00,Wunderground v.1.15,2013-01-25 08:03:00,
2013-01-25 03:04:00,21.2,9.8,30.46,ESE,115,0.0,0.0,61,0.00,,,0.00,Wunderground v.1.15,2013-01-25 08:04:00,
2013-01-25 03:08:00,21.2,9.8,30.46,ESE,113,0.0,0.0,61,0.00,,,0.00,Wunderground v.1.15,2013-01-25 08:08:00,
2013-01-25 03:09:00,21.2,9.8,30.46,SE,126,0.0,0.0,61,0.00,,,0.00,Wunderground v.1.15,2013-01-25 08:09:00,
2013-01-25 03:12:00,21.2,9.8,30.46,SE,130,0.0,0.0,61,0.00,,,0.00,Wunderground v.1.15,2013-01-25 08:12:00,
2013-01-25 03:14:00,21.2,9.8,30.46,East,79,0.0,2.0,61,0.00,,,0.00,Wunderground v.1.15,2013-01-25 08:14:00,
2013-01-25 03:17:00,21.2,9.8,30.45,SE,135,0.0,2.0,61,0.00,,,0.00,Wunderground v.1.15,2013-01-25 08:17:00,
2013-01-25 03:18:00,21.2,9.8,30.45,SE,132,0.0,2.0,61,0.00,,,0.00,Wunderground v.1.15,2013-01-25 08:18:00,
2013-01-25 03:21:00,21.2,9.5,30.44,ESE,111,0.0,0.0,60,0.00,,,0.00,Wunderground v.1.15,2013-01-25 08:21:00,
2013-01-25 03:23:00,21.3,9.6,30.44,ESE,107,0.0,0.0,60,0.00,,,0.00,Wunderground v.1.15,2013-01-25 08:23:00,
2013-01-25 03:26:00,21.2,9.5,30.45,ESE,115,0.0,0.0,60,0.00,,,0.00,Wunderground v.1.15,2013-01-25 08:26:00,
2013-01-25 03:28:00,21.3,9.2,30.45,ENE,72,0.0,0.0,59,0.00,,,0.00,Wunderground v.1.15,2013-01-25 08:28:00,
2013-01-25 03:30:00,21.3,9.2,30.45,ESE,102,0.0,0.0,59,0.00,,,0.00,Wunderground v.1.15,2013-01-25 08:30:00,
2013-01-25 03:31:00,21.3,9.2,30.45,ESE,103,0.0,0.0,59,0.00,,,0.00,Wunderground v.1.15,2013-01-25 08:31:00,
2013-01-25 03:34:00,21.3,9.2,30.45,SE,126,0.0,0.0,59,0.00,,,0.00,Wunderground v.1.15,2013-01-25 08:34:00,
2013-01-25 03:35:00,21.3,9.2,30.45,ESE,113,0.0,0.0,59,0.00,,,0.00,Wunderground v.1.15,2013-01-25 08:35:00,
2013-01-25 03:36:00,21.3,9.6,30.45,ESE,107,0.0,2.0,60,0.00,,,0.00,Wunderground v.1.15,2013-01-25 08:36:00,
2013-01-25 03:39:00,21.3,9.2,30.44,ESE,118,0.0,2.0,59,0.00,,,0.00,Wunderground v.1.15,2013-01-25 08:39:00,
2013-01-25 03:41:00,21.4,9.7,30.44,ESE,117,0.0,0.0,60,0.00,,,0.00,Wunderground v.1.15,2013-01-25 08:41:00,
2013-01-25 03:42:00,21.3,9.6,30.44,ESE,116,0.0,0.0,60,0.00,,,0.00,Wunderground v.1.15,2013-01-25 08:42:00,
2013-01-25 03:44:00,21.4,9.3,30.43,ESE,118,0.0,0.0,59,0.00,,,0.00,Wunderground v.1.15,2013-01-25 08:44:00,
2013-01-25 03:48:00,21.4,9.3,30.43,SE,134,0.0,0.0,59,0.00,,,0.00,Wunderground v.1.15,2013-01-25 08:48:00,
2013-01-25 03:50:00,21.4,8.9,30.42,ESE,122,0.0,0.0,58,0.00,,,0.00,Wunderground v.1.15,2013-01-25 08:50:00,
2013-01-25 03:52:00,21.4,9.3,30.42,SE,141,0.0,0.0,59,0.00,,,0.00,Wunderground v.1.15,2013-01-25 08:52:00,
2013-01-25 03:53:00,21.4,9.7,30.42,SE,141,0.0,0.0,60,0.00,,,0.00,Wunderground v.1.15,2013-01-25 08:53:00,
2013-01-25 03:55:00,21.4,10.0,30.42,ESE,103,0.0,1.0,61,0.00,,,0.00,Wunderground v.1.15,2013-01-25 08:55:00,
2013-01-25 03:58:00,21.4,9.7,30.42,ESE,119,0.0,3.0,60,0.00,,,0.00,Wunderground v.1.15,2013-01-25 08:58:00,
2013-01-25 04:00:00,21.4,9.7,30.42,ESE,111,0.0,0.0,60,0.00,,,0.00,Wunderground v.1.15,2013-01-25 09:00:00,
2013-01-25 04:01:00,21.4,9.7,30.41,ENE,76,0.0,4.0,60,0.00,,,0.00,Wunderground v.1.15,2013-01-25 09:01:00,
2013-01-25 04:06:00,21.5,9.4,30.41,ESE,122,1.0,4.0,59,0.00,,,0.00,Wunderground v.1.15,2013-01-25 09:06:00,
2013-01-25 04:07:00,21.5,9.4,30.41,East,80,1.0,4.0,59,0.00,,,0.00,Wunderground v.1.15,2013-01-25 09:07:00,
2013-01-25 04:08:00,21.5,9.7,30.40,East,101,1.0,4.0,60,0.00,,,0.00,Wunderground v.1.15,2013-01-25 09:08:00,
2013-01-25 04:14:00,21.5,9.4,30.41,SE,132,0.0,4.0,59,0.00,,,0.00,Wunderground v.1.15,2013-01-25 09:14:00,
2013-01-25 04:15:00,21.5,9.4,30.41,ESE,103,0.0,4.0,59,0.00,,,0.00,Wunderground v.1.15,2013-01-25 09:15:00,
2013-01-25 04:16:00,21.5,9.4,30.41,ESE,115,0.0,4.0,59,0.00,,,0.00,Wunderground v.1.15,2013-01-25 09:16:00,
2013-01-25 04:21:00,21.6,9.5,30.41,ESE,111,0.0,4.0,59,0.00,,,0.00,Wunderground v.1.15,2013-01-25 09:21:00,
2013-01-25 04:23:00,21.6,9.5,30.41,East,97,0.0,4.0,59,0.00,,,0.00,Wunderground v.1.15,2013-01-25 09:23:00,
2013-01-25 04:25:00,21.6,9.8,30.41,ESE,122,0.0,4.0,60,0.00,,,0.00,Wunderground v.1.15,2013-01-25 09:25:00,
2013-01-25 04:26:00,21.6,9.5,30.41,ESE,115,0.0,4.0,59,0.00,,,0.00,Wunderground v.1.15,2013-01-25 09:26:00,
2013-01-25 04:28:00,21.6,9.5,30.40,ESE,116,0.0,4.0,59,0.00,,,0.00,Wunderground v.1.15,2013-01-25 09:28:00,
2013-01-25 04:30:00,21.7,9.9,30.40,ESE,117,0.0,4.0,60,0.00,,,0.00,Wunderground v.1.15,2013-01-25 09:30:00,
2013-01-25 04:31:00,21.6,9.8,30.40,ESE,113,0.0,4.0,60,0.00,,,0.00,Wunderground v.1.15,2013-01-25 09:31:00,
2013-01-25 04:34:00,21.7,9.6,30.39,ESE,116,0.0,4.0,59,0.00,,,0.00,Wunderground v.1.15,2013-01-25 09:34:00,
2013-01-25 04:36:00,21.6,9.1,30.40,SSE,156,0.0,4.0,58,0.00,,,0.00,Wunderground v.1.15,2013-01-25 09:36:00,
2013-01-25 04:37:00,21.6,9.1,30.40,ESE,108,0.0,4.0,58,0.00,,,0.00,Wunderground v.1.15,2013-01-25 09:37:00,
2013-01-25 04:38:00,21.6,9.8,30.39,East,87,0.0,4.0,60,0.00,,,0.00,Wunderground v.1.15,2013-01-25 09:38:00,
2013-01-25 04:39:00,21.6,9.8,30.39,ESE,122,0.0,4.0,60,0.00,,,0.00,Wunderground v.1.15,2013-01-25 09:39:00,
2013-01-25 04:44:00,21.7,9.9,30.39,East,100,0.0,4.0,60,0.00,,,0.00,Wunderground v.1.15,2013-01-25 09:44:00,
2013-01-25 04:45:00,21.7,9.9,30.38,SE,141,0.0,4.0,60,0.00,,,0.00,Wunderground v.1.15,2013-01-25 09:45:00,
2013-01-25 04:46:00,21.7,9.6,30.38,ESE,114,0.0,4.0,59,0.00,,,0.00,Wunderground v.1.15,2013-01-25 09:46:00,
2013-01-25 04:48:00,21.7,9.6,30.38,ESE,110,0.0,4.0,59,0.00,,,0.00,Wunderground v.1.15,2013-01-25 09:48:00,
2013-01-25 04:51:00,21.8,10.0,30.37,ESE,107,0.0,4.0,60,0.00,,,0.00,Wunderground v.1.15,2013-01-25 09:51:00,
2013-01-25 04:54:00,21.8,10.0,30.38,WSW,246,0.0,4.0,60,0.00,,,0.00,Wunderground v.1.15,2013-01-25 09:54:00,
2013-01-25 04:55:00,21.8,10.0,30.38,SSW,192,0.0,4.0,60,0.00,,,0.00,Wunderground v.1.15,2013-01-25 09:55:00,
2013-01-25 05:00:00,21.9,10.1,30.37,ESE,109,0.0,0.0,60,0.00,,,0.00,Wunderground v.1.15,2013-01-25 10:00:00,
2013-01-25 05:01:00,21.9,10.1,30.37,SE,140,0.0,0.0,60,0.00,,,0.00,Wunderground v.1.15,2013-01-25 10:01:00,
2013-01-25 05:02:00,21.9,9.7,30.37,ESE,109,0.0,0.0,59,0.00,,,0.00,Wunderground v.1.15,2013-01-25 10:02:00,
2013-01-25 05:03:00,21.9,9.7,30.37,ESE,106,0.0,0.0,59,0.00,,,0.00,Wunderground v.1.15,2013-01-25 10:03:00,
2013-01-25 05:06:00,21.9,10.1,30.37,ESE,106,0.0,0.0,60,0.00,,,0.00,Wunderground v.1.15,2013-01-25 10:06:00,
2013-01-25 05:07:00,22.0,10.2,30.37,ESE,105,0.0,0.0,60,0.00,,,0.00,Wunderground v.1.15,2013-01-25 10:07:00,
2013-01-25 05:08:00,22.0,10.6,30.36,ESE,105,0.0,0.0,61,0.00,,,0.00,Wunderground v.1.15,2013-01-25 10:08:00,
2013-01-25 05:14:00,22.1,10.3,30.37,ESE,113,0.0,0.0,60,0.00,,,0.00,Wunderground v.1.15,2013-01-25 10:14:00,
2013-01-25 05:15:00,22.1,10.3,30.37,ESE,116,0.0,0.0,60,0.00,,,0.00,Wunderground v.1.15,2013-01-25 10:15:00,
2013-01-25 05:17:00,22.1,10.3,30.36,ESE,109,0.0,0.0,60,0.00,,,0.00,Wunderground v.1.15,2013-01-25 10:17:00,
2013-01-25 05:20:00,22.0,9.8,30.36,ESE,107,0.0,0.0,59,0.00,,,0.00,Wunderground v.1.15,2013-01-25 10:20:00,
2013-01-25 05:21:00,22.0,10.2,30.36,ESE,107,0.0,0.0,60,0.00,,,0.00,Wunderground v.1.15,2013-01-25 10:21:00,
2013-01-25 05:23:00,22.0,10.2,30.36,ESE,107,0.0,0.0,60,0.00,,,0.00,Wunderground v.1.15,2013-01-25 10:23:00,
2013-01-25 05:24:00,22.0,10.2,30.36,ESE,107,0.0,0.0,60,0.00,,,0.00,Wunderground v.1.15,2013-01-25 10:24:00,
2013-01-25 05:25:00,22.0,9.8,30.36,ESE,107,0.0,0.0,59,0.00,,,0.00,Wunderground v.1.15,2013-01-25 10:25:00,
2013-01-25 05:27:00,22.0,9.8,30.36,East,83,0.0,0.0,59,0.00,,,0.00,Wunderground v.1.15,2013-01-25 10:27:00,
2013-01-25 05:29:00,22.0,10.2,30.36,ESE,107,0.0,0.0,60,0.00,,,0.00,Wunderground v.1.15,2013-01-25 10:29:00,
2013-01-25 05:33:00,22.1,10.3,30.35,ESE,108,0.0,0.0,60,0.00,,,0.00,Wunderground v.1.15,2013-01-25 10:33:00,
2013-01-25 05:34:00,22.1,10.3,30.36,ESE,106,0.0,0.0,60,0.00,,,0.00,Wunderground v.1.15,2013-01-25 10:34:00,
2013-01-25 05:35:00,22.1,10.3,30.36,ESE,121,0.0,0.0,60,0.00,,,0.00,Wunderground v.1.15,2013-01-25 10:35:00,
2013-01-25 05:39:00,22.1,9.9,30.35,ESE,103,0.0,0.0,59,0.00,,,0.00,Wunderground v.1.15,2013-01-25 10:39:00,
2013-01-25 05:40:00,22.1,9.9,30.35,ESE,103,0.0,0.0,59,0.00,,,0.00,Wunderground v.1.15,2013-01-25 10:40:00,
2013-01-25 05:41:00,22.1,10.3,30.36,ESE,118,0.0,0.0,60,0.00,,,0.00,Wunderground v.1.15,2013-01-25 10:41:00,
2013-01-25 05:44:00,22.1,9.9,30.36,SSE,147,0.0,1.0,59,0.00,,,0.00,Wunderground v.1.15,2013-01-25 10:44:00,
2013-01-25 05:45:00,22.1,9.9,30.36,SE,137,0.0,1.0,59,0.00,,,0.00,Wunderground v.1.15,2013-01-25 10:45:00,
2013-01-25 05:46:00,22.1,9.9,30.36,SE,146,0.0,1.0,59,0.00,,,0.00,Wunderground v.1.15,2013-01-25 10:46:00,
2013-01-25 05:48:00,22.1,9.9,30.36,ESE,115,0.0,1.0,59,0.00,,,0.00,Wunderground v.1.15,2013-01-25 10:48:00,
2013-01-25 05:50:00,22.1,10.3,30.37,ESE,115,0.0,0.0,60,0.00,,,0.00,Wunderground v.1.15,2013-01-25 10:50:00,
2013-01-25 05:53:00,22.1,10.3,30.37,ESE,115,0.0,0.0,60,0.00,,,0.00,Wunderground v.1.15,2013-01-25 10:53:00,
2013-01-25 05:55:00,22.1,9.9,30.37,ESE,111,0.0,0.0,59,0.00,,,0.00,Wunderground v.1.15,2013-01-25 10:55:00,
2013-01-25 05:56:00,22.2,10.0,30.37,ESE,111,0.0,0.0,59,0.00,,,0.00,Wunderground v.1.15,2013-01-25 10:56:00,
2013-01-25 05:58:00,22.2,10.0,30.37,ESE,111,0.0,0.0,59,0.00,,,0.00,Wunderground v.1.15,2013-01-25 10:58:00,
2013-01-25 06:01:00,22.1,10.3,30.36,ESE,111,0.0,0.0,60,0.00,,,0.00,Wunderground v.1.15,2013-01-25 11:01:00,
2013-01-25 06:03:00,22.2,10.4,30.36,ESE,111,0.0,0.0,60,0.00,,,0.00,Wunderground v.1.15,2013-01-25 11:03:00,
2013-01-25 06:06:00,22.2,10.4,30.37,ESE,111,0.0,0.0,60,0.00,,,0.00,Wunderground v.1.15,2013-01-25 11:06:00,
2013-01-25 06:08:00,22.2,10.4,30.37,ESE,111,0.0,0.0,60,0.00,,,0.00,Wunderground v.1.15,2013-01-25 11:08:00,
2013-01-25 06:11:00,22.2,10.4,30.36,ESE,111,0.0,0.0,60,0.00,,,0.00,Wunderground v.1.15,2013-01-25 11:11:00,
2013-01-25 06:12:00,22.2,10.4,30.36,ESE,111,0.0,0.0,60,0.00,,,0.00,Wunderground v.1.15,2013-01-25 11:12:00,
2013-01-25 06:17:00,22.2,10.8,30.36,ESE,111,0.0,0.0,61,0.00,,,0.00,Wunderground v.1.15,2013-01-25 11:17:00,
2013-01-25 06:18:00,22.2,10.4,30.36,ESE,111,0.0,0.0,60,0.00,,,0.00,Wunderground v.1.15,2013-01-25 11:18:00,
2013-01-25 06:19:00,22.2,10.4,30.36,ESE,111,0.0,0.0,60,0.00,,,0.00,Wunderground v.1.15,2013-01-25 11:19:00,
2013-01-25 06:23:00,22.2,10.8,30.35,ESE,111,0.0,0.0,61,0.00,,,0.00,Wunderground v.1.15,2013-01-25 11:23:00,
2013-01-25 06:25:00,22.3,10.9,30.35,ESE,111,0.0,0.0,61,0.00,,,0.00,Wunderground v.1.15,2013-01-25 11:25:00,
2013-01-25 06:28:00,22.2,10.4,30.34,East,87,0.0,0.0,60,0.00,,,0.00,Wunderground v.1.15,2013-01-25 11:28:00,
2013-01-25 06:30:00,22.2,10.4,30.34,ESE,112,0.0,0.0,60,0.00,,,0.00,Wunderground v.1.15,2013-01-25 11:30:00,
2013-01-25 06:31:00,22.2,10.4,30.34,ESE,109,0.0,0.0,60,0.00,,,0.00,Wunderground v.1.15,2013-01-25 11:31:00,
2013-01-25 06:32:00,22.2,10.4,30.34,ESE,109,0.0,0.0,60,0.00,,,0.00,Wunderground v.1.15,2013-01-25 11:32:00,
2013-01-25 06:36:00,22.2,10.8,30.34,ESE,112,0.0,1.0,61,0.00,,,0.00,Wunderground v.1.15,2013-01-25 11:36:00,
2013-01-25 06:37:00,22.2,10.4,30.34,ESE,112,0.0,1.0,60,0.00,,,0.00,Wunderground v.1.15,2013-01-25 11:37:00,
2013-01-25 06:38:00,22.2,10.4,30.34,ESE,105,0.0,1.0,60,0.00,,,0.00,Wunderground v.1.15,2013-01-25 11:38:00,
2013-01-25 06:42:00,22.1,10.7,30.34,ESE,105,0.0,0.0,61,0.00,,,0.00,Wunderground v.1.15,2013-01-25 11:42:00,
2013-01-25 06:45:00,22.1,10.7,30.34,SE,130,0.0,0.0,61,0.00,,,0.00,Wunderground v.1.15,2013-01-25 11:45:00,
2013-01-25 06:46:00,22.1,10.7,30.34,SE,144,0.0,0.0,61,0.00,,,0.00,Wunderground v.1.15,2013-01-25 11:46:00,
2013-01-25 06:47:00,22.1,10.7,30.34,SE,144,0.0,0.0,61,0.00,,,0.00,Wunderground v.1.15,2013-01-25 11:47:00,
2013-01-25 06:51:00,22.1,11.8,30.35,SE,144,0.0,0.0,64,0.00,,,0.00,Wunderground v.1.15,2013-01-25 11:51:00,
2013-01-25 06:52:00,22.1,11.8,30.35,SE,144,0.0,0.0,64,0.00,,,0.00,Wunderground v.1.15,2013-01-25 11:52:00,
2013-01-25 06:53:00,22.1,11.8,30.35,SE,144,0.0,0.0,64,0.00,,,0.00,Wunderground v.1.15,2013-01-25 11:53:00,
2013-01-25 06:58:00,22.0,12.4,30.35,SE,144,0.0,0.0,66,0.00,,,0.00,Wunderground v.1.15,2013-01-25 11:58:00,
2013-01-25 07:00:00,22.1,12.5,30.35,SE,141,0.0,0.0,66,0.00,,,0.00,Wunderground v.1.15,2013-01-25 12:00:00,
2013-01-25 07:03:00,21.9,12.6,30.33,ESE,111,0.0,3.0,67,0.00,,,0.00,Wunderground v.1.15,2013-01-25 12:03:00,
2013-01-25 07:06:00,21.8,12.5,30.33,ESE,111,0.0,3.0,67,0.00,,,0.00,Wunderground v.1.15,2013-01-25 12:06:00,
2013-01-25 07:08:00,21.7,12.8,30.32,ESE,111,0.0,3.0,68,0.00,,,0.00,Wunderground v.1.15,2013-01-25 12:08:00,
2013-01-25 07:09:00,21.7,13.1,30.32,ESE,111,0.0,3.0,69,0.00,,,0.00,Wunderground v.1.15,2013-01-25 12:09:00,
2013-01-25 07:13:00,21.6,13.0,30.32,ESE,110,0.0,3.0,69,0.00,,,0.00,Wunderground v.1.15,2013-01-25 12:13:00,
2013-01-25 07:14:00,21.6,13.0,30.32,ESE,110,0.0,3.0,69,0.00,,,0.00,Wunderground v.1.15,2013-01-25 12:14:00,
2013-01-25 07:18:00,21.6,13.3,30.31,ESE,105,0.0,3.0,70,0.00,,,0.00,Wunderground v.1.15,2013-01-25 12:18:00,
2013-01-25 07:19:00,21.6,13.3,30.31,ESE,105,0.0,3.0,70,0.00,,,0.00,Wunderground v.1.15,2013-01-25 12:19:00,
2013-01-25 07:24:00,21.5,12.9,30.31,SE,128,0.0,3.0,69,0.00,,,0.00,Wunderground v.1.15,2013-01-25 12:24:00,
2013-01-25 07:25:00,21.5,12.9,30.31,SE,128,0.0,3.0,69,0.00,,,0.00,Wunderground v.1.15,2013-01-25 12:25:00,
2013-01-25 07:26:00,21.5,13.2,30.31,SE,128,0.0,3.0,70,0.00,,,0.00,Wunderground v.1.15,2013-01-25 12:26:00,
2013-01-25 07:28:00,21.6,13.3,30.31,ESE,119,0.0,3.0,70,0.00,,,0.00,Wunderground v.1.15,2013-01-25 12:28:00,
2013-01-25 07:31:00,21.6,13.0,30.30,ESE,109,0.0,3.0,69,0.00,,,0.00,Wunderground v.1.15,2013-01-25 12:31:00,
2013-01-25 07:33:00,21.6,13.3,30.30,ESE,109,0.0,3.0,70,0.00,,,0.00,Wunderground v.1.15,2013-01-25 12:33:00,
2013-01-25 07:35:00,21.6,13.3,30.30,SE,133,0.0,3.0,70,0.00,,,0.00,Wunderground v.1.15,2013-01-25 12:35:00,
2013-01-25 07:37:00,21.6,13.0,30.30,SE,125,0.0,3.0,69,0.00,,,0.00,Wunderground v.1.15,2013-01-25 12:37:00,
2013-01-25 07:38:00,21.6,13.3,30.30,ESE,113,0.0,3.0,70,0.00,,,0.00,Wunderground v.1.15,2013-01-25 12:38:00,
2013-01-25 07:41:00,21.6,13.3,30.31,SE,128,0.0,3.0,70,0.00,,,0.00,Wunderground v.1.15,2013-01-25 12:41:00,
2013-01-25 07:45:00,21.7,13.7,30.30,SE,130,0.0,3.0,71,0.00,,,0.00,Wunderground v.1.15,2013-01-25 12:45:00,
2013-01-25 07:47:00,21.7,13.7,30.30,SE,134,0.0,3.0,71,0.00,,,0.00,Wunderground v.1.15,2013-01-25 12:47:00,
2013-01-25 07:50:00,21.7,13.7,30.30,SE,127,0.0,3.0,71,0.00,,,0.00,Wunderground v.1.15,2013-01-25 12:50:00,
2013-01-25 07:51:00,21.7,13.7,30.29,ESE,117,0.0,3.0,71,0.00,,,0.00,Wunderground v.1.15,2013-01-25 12:51:00,
2013-01-25 07:52:00,21.7,13.7,30.29,ESE,116,0.0,3.0,71,0.00,,,0.00,Wunderground v.1.15,2013-01-25 12:52:00,
2013-01-25 07:54:00,21.8,13.8,30.29,SE,130,0.0,3.0,71,0.00,,,0.00,Wunderground v.1.15,2013-01-25 12:54:00,
2013-01-25 07:55:00,21.8,13.8,30.29,SE,132,0.0,3.0,71,0.00,,,0.00,Wunderground v.1.15,2013-01-25 12:55:00,
2013-01-25 07:57:00,21.7,13.4,30.29,SSE,163,0.0,3.0,70,0.00,,,0.00,Wunderground v.1.15,2013-01-25 12:57:00,
2013-01-25 07:59:00,21.7,13.4,30.28,ESE,111,1.0,3.0,70,0.00,,,0.00,Wunderground v.1.15,2013-01-25 12:59:00,
2013-01-25 08:00:00,21.7,13.7,30.28,ESE,117,0.0,0.0,71,0.00,,,0.00,Wunderground v.1.15,2013-01-25 13:00:00,
2013-01-25 08:01:00,21.7,13.7,30.28,ESE,117,0.0,0.0,71,0.00,,,0.00,Wunderground v.1.15,2013-01-25 13:01:00,
2013-01-25 08:03:00,21.8,13.8,30.29,ESE,117,0.0,0.0,71,0.00,,,0.00,Wunderground v.1.15,2013-01-25 13:03:00,
2013-01-25 08:08:00,21.8,13.8,30.29,East,101,0.0,0.0,71,0.00,,,0.00,Wunderground v.1.15,2013-01-25 13:08:00,
2013-01-25 08:09:00,21.8,13.8,30.29,East,98,0.0,0.0,71,0.00,,,0.00,Wunderground v.1.15,2013-01-25 13:09:00,
2013-01-25 08:10:00,21.8,13.8,30.29,East,98,0.0,0.0,71,0.00,,,0.00,Wunderground v.1.15,2013-01-25 13:10:00,
2013-01-25 08:14:00,21.8,13.5,30.30,SE,131,0.0,0.0,70,0.00,,,0.00,Wunderground v.1.15,2013-01-25 13:14:00,
2013-01-25 08:16:00,21.8,13.8,30.29,ESE,123,0.0,0.0,71,0.00,,,0.00,Wunderground v.1.15,2013-01-25 13:16:00,
2013-01-25 08:19:00,21.8,13.8,30.29,ESE,114,0.0,0.0,71,0.00,,,0.00,Wunderground v.1.15,2013-01-25 13:19:00,
2013-01-25 08:22:00,21.8,13.8,30.28,ESE,117,0.0,0.0,71,0.00,,,0.00,Wunderground v.1.15,2013-01-25 13:22:00,
2013-01-25 08:26:00,21.9,13.9,30.28,ESE,115,0.0,0.0,71,0.00,,,0.00,Wunderground v.1.15,2013-01-25 13:26:00,
2013-01-25 08:28:00,21.9,14.6,30.28,ESE,115,0.0,0.0,73,0.00,,,0.00,Wunderground v.1.15,2013-01-25 13:28:00,
2013-01-25 08:29:00,21.9,14.9,30.28,ESE,113,0.0,0.0,74,0.00,,,0.00,Wunderground v.1.15,2013-01-25 13:29:00,
2013-01-25 08:30:00,21.9,14.9,30.28,ESE,106,0.0,0.0,74,0.00,,,0.00,Wunderground v.1.15,2013-01-25 13:30:00,
2013-01-25 08:35:00,21.9,15.5,30.28,SE,135,0.0,0.0,76,0.00,,,0.00,Wunderground v.1.15,2013-01-25 13:35:00,
2013-01-25 08:36:00,21.9,15.8,30.28,SE,136,0.0,0.0,77,0.00,,,0.00,Wunderground v.1.15,2013-01-25 13:36:00,
2013-01-25 08:37:00,21.9,15.8,30.27,SE,136,0.0,0.0,77,0.00,,,0.00,Wunderground v.1.15,2013-01-25 13:37:00,
2013-01-25 08:42:00,21.8,16.0,30.28,SE,136,0.0,0.0,78,0.00,,,0.00,Wunderground v.1.15,2013-01-25 13:42:00,
2013-01-25 08:43:00,21.8,16.0,30.28,SE,137,0.0,0.0,78,0.00,,,0.00,Wunderground v.1.15,2013-01-25 13:43:00,
2013-01-25 08:44:00,21.8,16.3,30.28,SE,145,0.0,0.0,79,0.00,,,0.00,Wunderground v.1.15,2013-01-25 13:44:00,
2013-01-25 08:48:00,21.7,15.9,30.27,SE,126,0.0,0.0,78,0.00,,,0.00,Wunderground v.1.15,2013-01-25 13:48:00,
2013-01-25 08:50:00,21.7,15.9,30.27,ESE,121,0.0,0.0,78,0.00,,,0.00,Wunderground v.1.15,2013-01-25 13:50:00,
2013-01-25 08:54:00,21.6,16.1,30.27,SE,125,0.0,0.0,79,0.00,,,0.00,Wunderground v.1.15,2013-01-25 13:54:00,
2013-01-25 08:55:00,21.6,16.1,30.27,South,177,0.0,0.0,79,0.00,,,0.00,Wunderground v.1.15,2013-01-25 13:55:00,
2013-01-25 08:58:00,21.4,15.9,30.26,SE,146,0.0,0.0,79,0.00,,,0.00,Wunderground v.1.15,2013-01-25 13:58:00,
2013-01-25 09:00:00,21.3,15.8,30.26,SSE,159,0.0,0.0,79,0.00,,,0.00,Wunderground v.1.15,2013-01-25 14:00:00,
2013-01-25 09:01:00,21.3,16.1,30.26,South,174,0.0,0.0,80,0.00,,,0.00,Wunderground v.1.15,2013-01-25 14:01:00,
2013-01-25 09:03:00,21.2,16.0,30.25,SSE,165,0.0,0.0,80,0.00,,,0.00,Wunderground v.1.15,2013-01-25 14:03:00,
2013-01-25 09:06:00,21.1,16.2,30.25,SSE,153,0.0,1.0,81,0.00,,,0.00,Wunderground v.1.15,2013-01-25 14:06:00,
2013-01-25 09:08:00,21.1,16.2,30.25,South,180,0.0,1.0,81,0.00,,,0.00,Wunderground v.1.15,2013-01-25 14:08:00,
2013-01-25 09:11:00,21.0,16.4,30.26,ESE,117,0.0,0.0,82,0.00,,,0.00,Wunderground v.1.15,2013-01-25 14:11:00,
2013-01-25 09:12:00,21.0,16.4,30.26,ESE,115,0.0,0.0,82,0.00,,,0.00,Wunderground v.1.15,2013-01-25 14:12:00,
2013-01-25 09:16:00,20.9,16.5,30.26,SE,146,0.0,1.0,83,0.00,,,0.00,Wunderground v.1.15,2013-01-25 14:16:00,
2013-01-25 09:18:00,20.9,16.5,30.25,South,169,0.0,1.0,83,0.00,,,0.00,Wunderground v.1.15,2013-01-25 14:18:00,
2013-01-25 09:21:00,20.8,16.7,30.25,SSE,165,0.0,0.0,84,0.00,,,0.00,Wunderground v.1.15,2013-01-25 14:21:00,
2013-01-25 09:23:00,20.9,16.8,30.25,SSE,165,0.0,0.0,84,0.00,,,0.00,Wunderground v.1.15,2013-01-25 14:23:00,
2013-01-25 09:25:00,20.9,17.1,30.26,SSE,160,0.0,0.0,85,0.00,,,0.00,Wunderground v.1.15,2013-01-25 14:25:00,
2013-01-25 09:29:00,21.0,17.2,30.26,SE,128,0.0,0.0,85,0.00,,,0.00,Wunderground v.1.15,2013-01-25 14:29:00,
2013-01-25 09:32:00,21.0,17.2,30.26,SE,127,0.0,0.0,85,0.00,,,0.00,Wunderground v.1.15,2013-01-25 14:32:00,
2013-01-25 09:34:00,21.0,17.2,30.26,ESE,121,0.0,0.0,85,0.00,,,0.00,Wunderground v.1.15,2013-01-25 14:34:00,
2013-01-25 09:37:00,21.0,17.2,30.25,SE,128,0.0,0.0,85,0.00,,,0.00,Wunderground v.1.15,2013-01-25 14:37:00,
2013-01-25 09:39:00,21.0,17.2,30.25,ESE,115,0.0,0.0,85,0.00,,,0.00,Wunderground v.1.15,2013-01-25 14:39:00,
2013-01-25 09:41:00,21.0,17.5,30.26,ESE,114,0.0,0.0,86,0.00,,,0.00,Wunderground v.1.15,2013-01-25 14:41:00,
2013-01-25 09:43:00,21.1,17.6,30.26,ESE,113,0.0,0.0,86,0.00,,,0.00,Wunderground v.1.15,2013-01-25 14:43:00,
2013-01-25 09:44:00,21.1,17.6,30.26,ESE,113,0.0,0.0,86,0.00,,,0.00,Wunderground v.1.15,2013-01-25 14:44:00,
2013-01-25 09:46:00,21.1,17.6,30.26,ESE,113,0.0,0.0,86,0.00,,,0.00,Wunderground v.1.15,2013-01-25 14:46:00,
2013-01-25 09:49:00,21.2,17.7,30.25,ESE,113,0.0,0.0,86,0.00,,,0.00,Wunderground v.1.15,2013-01-25 14:49:00,
2013-01-25 09:51:00,21.2,17.7,30.25,ESE,113,0.0,0.0,86,0.00,,,0.00,Wunderground v.1.15,2013-01-25 14:51:00,
2013-01-25 09:53:00,21.2,17.7,30.26,ESE,113,0.0,0.0,86,0.00,,,0.00,Wunderground v.1.15,2013-01-25 14:53:00,
2013-01-25 09:58:00,21.3,17.8,30.26,ESE,119,0.0,0.0,86,0.00,,,0.00,Wunderground v.1.15,2013-01-25 14:58:00,
2013-01-25 10:00:00,21.3,17.8,30.26,ESE,119,0.0,0.0,86,0.00,,,0.00,Wunderground v.1.15,2013-01-25 15:00:00,
2013-01-25 10:03:00,21.3,17.8,30.26,ESE,118,0.0,3.0,86,0.00,,,0.00,Wunderground v.1.15,2013-01-25 15:03:00,
2013-01-25 10:04:00,21.3,17.8,30.26,ESE,118,0.0,3.0,86,0.00,,,0.00,Wunderground v.1.15,2013-01-25 15:04:00,
2013-01-25 10:05:00,21.4,17.9,30.25,ESE,118,0.0,3.0,86,0.00,,,0.00,Wunderground v.1.15,2013-01-25 15:05:00,
2013-01-25 10:08:00,21.3,17.8,30.26,ESE,118,0.0,3.0,86,0.00,,,0.00,Wunderground v.1.15,2013-01-25 15:08:00,
2013-01-25 10:09:00,21.4,18.1,30.26,ESE,118,0.0,3.0,87,0.00,,,0.00,Wunderground v.1.15,2013-01-25 15:09:00,
2013-01-25 10:13:00,21.4,18.1,30.26,ESE,108,0.0,3.0,87,0.00,,,0.00,Wunderground v.1.15,2013-01-25 15:13:00,
2013-01-25 10:14:00,21.4,18.1,30.25,ESE,113,0.0,3.0,87,0.00,,,0.00,Wunderground v.1.15,2013-01-25 15:14:00,
2013-01-25 10:15:00,21.4,18.1,30.26,ESE,113,0.0,3.0,87,0.00,,,0.00,Wunderground v.1.15,2013-01-25 15:15:00,
2013-01-25 10:18:00,21.4,18.1,30.26,ESE,110,0.0,3.0,87,0.00,,,0.00,Wunderground v.1.15,2013-01-25 15:18:00,
2013-01-25 10:19:00,21.4,18.1,30.26,ESE,106,0.0,3.0,87,0.00,,,0.00,Wunderground v.1.15,2013-01-25 15:19:00,
2013-01-25 10:21:00,21.5,18.2,30.26,ESE,106,0.0,3.0,87,0.00,,,0.00,Wunderground v.1.15,2013-01-25 15:21:00,
2013-01-25 10:24:00,21.5,18.2,30.26,ESE,106,0.0,3.0,87,0.00,,,0.00,Wunderground v.1.15,2013-01-25 15:24:00,
2013-01-25 10:27:00,21.5,18.5,30.26,ESE,107,0.0,3.0,88,0.00,,,0.00,Wunderground v.1.15,2013-01-25 15:27:00,
2013-01-25 10:28:00,21.6,18.6,30.26,ESE,105,0.0,3.0,88,0.00,,,0.00,Wunderground v.1.15,2013-01-25 15:28:00,
2013-01-25 10:30:00,21.6,18.6,30.26,ESE,105,0.0,3.0,88,0.00,,,0.00,Wunderground v.1.15,2013-01-25 15:30:00,
2013-01-25 10:33:00,21.6,18.6,30.25,ESE,105,0.0,3.0,88,0.00,,,0.00,Wunderground v.1.15,2013-01-25 15:33:00,
2013-01-25 10:34:00,21.6,18.6,30.25,ESE,107,0.0,3.0,88,0.00,,,0.00,Wunderground v.1.15,2013-01-25 15:34:00,
2013-01-25 10:36:00,21.6,18.6,30.26,ESE,112,0.0,3.0,88,0.00,,,0.00,Wunderground v.1.15,2013-01-25 15:36:00,
2013-01-25 10:39:00,21.6,18.9,30.26,ESE,113,0.0,3.0,89,0.00,,,0.00,Wunderground v.1.15,2013-01-25 15:39:00,
2013-01-25 10:40:00,21.6,18.9,30.26,SE,136,0.0,3.0,89,0.00,,,0.00,Wunderground v.1.15,2013-01-25 15:40:00,
2013-01-25 10:41:00,21.7,19.0,30.26,South,179,0.0,3.0,89,0.00,,,0.00,Wunderground v.1.15,2013-01-25 15:41:00,
2013-01-25 10:46:00,21.8,19.3,30.26,South,187,0.0,3.0,90,0.00,,,0.00,Wunderground v.1.15,2013-01-25 15:46:00,
2013-01-25 10:47:00,21.8,19.3,30.26,South,187,0.0,3.0,90,0.00,,,0.00,Wunderground v.1.15,2013-01-25 15:47:00,
2013-01-25 10:48:00,21.8,19.3,30.27,South,187,0.0,3.0,90,0.00,,,0.00,Wunderground v.1.15,2013-01-25 15:48:00,
2013-01-25 10:49:00,21.8,19.3,30.27,South,187,0.0,3.0,90,0.00,,,0.00,Wunderground v.1.15,2013-01-25 15:49:00,
2013-01-25 10:52:00,21.9,19.4,30.27,South,187,0.0,3.0,90,0.00,,,0.00,Wunderground v.1.15,2013-01-25 15:52:00,
2013-01-25 10:54:00,21.9,19.4,30.27,South,187,0.0,3.0,90,0.00,,,0.00,Wunderground v.1.15,2013-01-25 15:54:00,
2013-01-25 10:57:00,22.0,19.5,30.27,South,187,0.0,3.0,90,0.00,,,0.00,Wunderground v.1.15,2013-01-25 15:57:00,
2013-01-25 10:59:00,22.0,19.8,30.27,South,187,0.0,3.0,91,0.00,,,0.00,Wunderground v.1.15,2013-01-25 15:59:00,
2013-01-25 11:00:00,22.0,19.8,30.27,South,187,0.0,0.0,91,0.00,,,0.00,Wunderground v.1.15,2013-01-25 16:00:00,
2013-01-25 11:02:00,22.0,19.8,30.27,South,187,0.0,2.0,91,0.00,,,0.00,Wunderground v.1.15,2013-01-25 16:02:00,
2013-01-25 11:06:00,22.0,19.8,30.22,South,186,0.0,2.0,91,0.00,,,0.00,Wunderground v.1.15,2013-01-25 16:06:00,
2013-01-25 11:07:00,22.1,19.9,30.22,South,186,0.0,2.0,91,0.00,,,0.00,Wunderground v.1.15,2013-01-25 16:07:00,
2013-01-25 11:08:00,22.1,19.9,30.23,South,186,0.0,2.0,91,0.00,,,0.00,Wunderground v.1.15,2013-01-25 16:08:00,
2013-01-25 11:10:00,22.2,20.2,30.23,SW,225,0.0,2.0,92,0.00,,,0.00,Wunderground v.1.15,2013-01-25 16:10:00,
2013-01-25 11:12:00,22.2,20.2,30.24,South,186,0.0,2.0,92,0.00,,,0.00,Wunderground v.1.15,2013-01-25 16:12:00,
2013-01-25 11:15:00,22.3,20.3,30.22,ESE,104,0.0,2.0,92,0.00,,,0.00,Wunderground v.1.15,2013-01-25 16:15:00,
2013-01-25 11:16:00,22.4,20.4,30.23,ESE,104,0.0,2.0,92,0.00,,,0.00,Wunderground v.1.15,2013-01-25 16:16:00,
2013-01-25 11:17:00,22.4,20.4,30.23,South,182,0.0,2.0,92,0.00,,,0.00,Wunderground v.1.15,2013-01-25 16:17:00,
2013-01-25 11:18:00,22.4,20.4,30.23,SSW,209,0.0,2.0,92,0.00,,,0.00,Wunderground v.1.15,2013-01-25 16:18:00,
2013-01-25 11:20:00,22.5,20.8,30.23,ESE,117,1.0,1.0,93,0.00,,,0.00,Wunderground v.1.15,2013-01-25 16:20:00,
2013-01-25 11:24:00,22.5,20.8,30.23,SSW,207,1.0,5.0,93,0.00,,,0.00,Wunderground v.1.15,2013-01-25 16:24:00,
2013-01-25 11:26:00,22.5,20.8,30.22,SE,126,1.0,5.0,93,0.00,,,0.00,Wunderground v.1.15,2013-01-25 16:26:00,
2013-01-25 11:27:00,22.5,20.8,30.22,SE,126,1.0,5.0,93,0.00,,,0.00,Wunderground v.1.15,2013-01-25 16:27:00,
2013-01-25 11:30:00,22.6,20.9,30.23,SSW,207,1.0,1.0,93,0.00,,,0.00,Wunderground v.1.15,2013-01-25 16:30:00,
2013-01-25 11:32:00,22.7,21.0,30.23,SSW,209,1.0,2.0,93,0.00,,,0.00,Wunderground v.1.15,2013-01-25 16:32:00,
2013-01-25 11:34:00,22.7,21.0,30.23,South,184,1.0,2.0,93,0.00,,,0.00,Wunderground v.1.15,2013-01-25 16:34:00,
2013-01-25 11:38:00,22.6,20.9,30.22,SSW,200,1.0,4.0,93,0.00,,,0.00,Wunderground v.1.15,2013-01-25 16:38:00,
2013-01-25 11:39:00,22.6,20.9,30.22,SSW,204,1.0,4.0,93,0.00,,,0.00,Wunderground v.1.15,2013-01-25 16:39:00,
2013-01-25 11:40:00,22.6,20.9,30.22,South,188,1.0,1.0,93,0.00,,,0.00,Wunderground v.1.15,2013-01-25 16:40:00,
2013-01-25 11:43:00,22.7,21.0,30.22,SSW,211,1.0,4.0,93,0.00,,,0.00,Wunderground v.1.15,2013-01-25 16:43:00,
2013-01-25 11:46:00,22.7,21.2,30.22,SSW,200,1.0,4.0,94,0.00,,,0.00,Wunderground v.1.15,2013-01-25 16:46:00,
2013-01-25 11:48:00,22.7,21.2,30.23,SSW,200,1.0,4.0,94,0.00,,,0.00,Wunderground v.1.15,2013-01-25 16:48:00,
2013-01-25 11:50:00,22.8,21.3,30.23,South,190,0.0,2.0,94,0.00,,,0.00,Wunderground v.1.15,2013-01-25 16:50:00,
2013-01-25 11:55:00,22.9,21.4,30.24,WSW,237,1.0,2.0,94,0.00,,,0.00,Wunderground v.1.15,2013-01-25 16:55:00,
2013-01-25 11:56:00,22.8,21.3,30.24,WSW,237,1.0,2.0,94,0.00,,,0.00,Wunderground v.1.15,2013-01-25 16:56:00,
2013-01-25 12:00:00,22.9,21.4,30.23,WSW,237,0.0,0.0,94,0.00,,,0.00,Wunderground v.1.15,2013-01-25 17:00:00,
2013-01-25 12:02:00,22.9,21.4,30.23,WSW,237,0.0,0.0,94,0.00,,,0.00,Wunderground v.1.15,2013-01-25 17:02:00,
2013-01-25 12:03:00,22.9,21.4,30.23,WSW,237,0.0,0.0,94,0.00,,,0.00,Wunderground v.1.15,2013-01-25 17:03:00,
2013-01-25 12:08:00,23.0,21.5,30.23,WSW,237,0.0,0.0,94,0.00,,,0.00,Wunderground v.1.15,2013-01-25 17:08:00,
2013-01-25 12:09:00,23.0,21.5,30.22,WSW,237,0.0,0.0,94,0.00,,,0.00,Wunderground v.1.15,2013-01-25 17:09:00,
2013-01-25 12:10:00,23.0,21.5,30.22,WSW,237,0.0,0.0,94,0.00,,,0.00,Wunderground v.1.15,2013-01-25 17:10:00,
2013-01-25 12:12:00,23.1,21.6,30.22,WSW,237,0.0,0.0,94,0.00,,,0.00,Wunderground v.1.15,2013-01-25 17:12:00,
2013-01-25 12:13:00,23.1,21.6,30.22,WSW,237,0.0,0.0,94,0.00,,,0.00,Wunderground v.1.15,2013-01-25 17:13:00,
2013-01-25 12:16:00,23.2,21.7,30.22,WSW,237,0.0,2.0,94,0.00,,,0.00,Wunderground v.1.15,2013-01-25 17:16:00,
2013-01-25 12:20:00,23.3,21.8,30.22,WSW,237,0.0,0.0,94,0.00,,,0.00,Wunderground v.1.15,2013-01-25 17:20:00,
2013-01-25 12:21:00,23.3,21.8,30.21,WSW,237,0.0,3.0,94,0.00,,,0.00,Wunderground v.1.15,2013-01-25 17:21:00,
2013-01-25 12:23:00,23.4,21.9,30.21,WSW,237,0.0,3.0,94,0.00,,,0.00,Wunderground v.1.15,2013-01-25 17:23:00,
2013-01-25 12:25:00,23.4,21.9,30.21,WSW,237,0.0,3.0,94,0.00,,,0.00,Wunderground v.1.15,2013-01-25 17:25:00,
2013-01-25 12:28:00,23.5,22.3,30.20,SW,219,0.0,3.0,95,0.00,,,0.00,Wunderground v.1.15,2013-01-25 17:28:00,
2013-01-25 12:29:00,23.5,22.3,30.20,SW,219,0.0,3.0,95,0.00,,,0.00,Wunderground v.1.15,2013-01-25 17:29:00,
2013-01-25 12:31:00,23.6,22.4,30.20,SW,219,0.0,0.0,95,0.00,,,0.00,Wunderground v.1.15,2013-01-25 17:31:00,
2013-01-25 12:34:00,23.6,22.4,30.20,SW,219,0.0,0.0,95,0.00,,,0.00,Wunderground v.1.15,2013-01-25 17:34:00,
2013-01-25 12:35:00,23.6,22.4,30.20,SW,219,0.0,0.0,95,0.00,,,0.00,Wunderground v.1.15,2013-01-25 17:35:00,
2013-01-25 12:36:00,23.6,22.4,30.20,SW,219,0.0,0.0,95,0.00,,,0.00,Wunderground v.1.15,2013-01-25 17:36:00,
2013-01-25 12:41:00,23.7,22.5,30.20,SW,219,0.0,0.0,95,0.00,,,0.00,Wunderground v.1.15,2013-01-25 17:41:00,
2013-01-25 12:42:00,23.7,22.5,30.20,SW,219,0.0,0.0,95,0.00,,,0.00,Wunderground v.1.15,2013-01-25 17:42:00,
2013-01-25 12:44:00,23.8,22.6,30.20,SW,219,0.0,1.0,95,0.00,,,0.00,Wunderground v.1.15,2013-01-25 17:44:00,
2013-01-25 12:46:00,23.9,22.7,30.19,SW,219,0.0,1.0,95,0.00,,,0.00,Wunderground v.1.15,2013-01-25 17:46:00,
2013-01-25 12:48:00,24.0,22.8,30.20,NW,318,0.0,1.0,95,0.00,,,0.00,Wunderground v.1.15,2013-01-25 17:48:00,
2013-01-25 12:51:00,24.1,22.9,30.19,NW,313,0.0,0.0,95,0.00,,,0.00,Wunderground v.1.15,2013-01-25 17:51:00,
2013-01-25 12:52:00,24.1,22.9,30.19,NW,312,0.0,0.0,95,0.00,,,0.00,Wunderground v.1.15,2013-01-25 17:52:00,
2013-01-25 12:54:00,24.2,23.0,30.19,NW,312,0.0,0.0,95,0.00,,,0.00,Wunderground v.1.15,2013-01-25 17:54:00,
2013-01-25 12:57:00,24.3,23.1,30.20,NW,312,0.0,0.0,95,0.00,,,0.00,Wunderground v.1.15,2013-01-25 17:57:00,
2013-01-25 13:00:00,24.4,23.2,30.20,NW,313,0.0,0.0,95,0.00,,,0.00,Wunderground v.1.15,2013-01-25 18:00:00,
2013-01-25 13:03:00,24.4,23.2,30.20,NW,312,0.0,6.0,95,0.00,,,0.00,Wunderground v.1.15,2013-01-25 18:03:00,
2013-01-25 13:06:00,24.5,23.3,30.20,NW,313,0.0,6.0,95,0.00,,,0.00,Wunderground v.1.15,2013-01-25 18:06:00,
2013-01-25 13:09:00,24.7,23.5,30.20,NW,313,0.0,6.0,95,0.00,,,0.00,Wunderground v.1.15,2013-01-25 18:09:00,
2013-01-25 13:10:00,24.7,23.5,30.20,NW,312,0.0,6.0,95,0.00,,,0.00,Wunderground v.1.15,2013-01-25 18:10:00,
2013-01-25 13:13:00,24.9,23.7,30.20,NW,313,0.0,6.0,95,0.00,,,0.00,Wunderground v.1.15,2013-01-25 18:13:00,
2013-01-25 13:14:00,25.0,23.8,30.20,NW,313,0.0,6.0,95,0.00,,,0.00,Wunderground v.1.15,2013-01-25 18:14:00,
2013-01-25 13:15:00,25.0,23.8,30.20,NW,313,0.0,6.0,95,0.00,,,0.00,Wunderground v.1.15,2013-01-25 18:15:00,
2013-01-25 13:17:00,25.1,23.9,30.20,NW,313,0.0,6.0,95,0.00,,,0.00,Wunderground v.1.15,2013-01-25 18:17:00,
2013-01-25 13:19:00,25.1,23.9,30.20,NW,320,0.0,6.0,95,0.00,,,0.00,Wunderground v.1.15,2013-01-25 18:19:00,
2013-01-25 13:23:00,25.2,24.0,30.20,NW,321,1.0,6.0,95,0.00,,,0.00,Wunderground v.1.15,2013-01-25 18:23:00,
2013-01-25 13:24:00,25.3,24.1,30.20,NW,321,1.0,6.0,95,0.00,,,0.00,Wunderground v.1.15,2013-01-25 18:24:00,
2013-01-25 13:29:00,25.4,24.2,30.20,NNW,337,0.0,6.0,95,0.00,,,0.00,Wunderground v.1.15,2013-01-25 18:29:00,
2013-01-25 13:31:00,25.4,24.2,30.20,NNW,337,0.0,6.0,95,0.00,,,0.00,Wunderground v.1.15,2013-01-25 18:31:00,
2013-01-25 13:33:00,25.5,24.3,30.20,NNW,329,0.0,6.0,95,0.00,,,0.00,Wunderground v.1.15,2013-01-25 18:33:00,
2013-01-25 13:36:00,25.5,24.3,30.19,NNW,330,0.0,6.0,95,0.00,,,0.00,Wunderground v.1.15,2013-01-25 18:36:00,
2013-01-25 13:39:00,25.6,24.4,30.19,NNW,330,0.0,6.0,95,0.00,,,0.00,Wunderground v.1.15,2013-01-25 18:39:00,
2013-01-25 13:42:00,25.6,24.4,30.20,NNW,330,0.0,6.0,95,0.00,,,0.00,Wunderground v.1.15,2013-01-25 18:42:00,
2013-01-25 13:43:00,25.6,24.4,30.20,NNW,330,0.0,6.0,95,0.00,,,0.00,Wunderground v.1.15,2013-01-25 18:43:00,
2013-01-25 13:45:00,25.7,24.5,30.20,NNW,330,0.0,6.0,95,0.00,,,0.00,Wunderground v.1.15,2013-01-25 18:45:00,
2013-01-25 13:47:00,25.7,24.5,30.20,NNW,330,0.0,6.0,95,0.00,,,0.00,Wunderground v.1.15,2013-01-25 18:47:00,
2013-01-25 13:50:00,25.7,24.5,30.20,NNW,330,0.0,6.0,95,0.00,,,0.00,Wunderground v.1.15,2013-01-25 18:50:00,
2013-01-25 13:51:00,25.7,24.7,30.20,NNW,330,0.0,6.0,96,0.00,,,0.00,Wunderground v.1.15,2013-01-25 18:51:00,
2013-01-25 13:53:00,25.7,24.5,30.20,NNW,330,0.0,6.0,95,0.00,,,0.00,Wunderground v.1.15,2013-01-25 18:53:00,
2013-01-25 13:56:00,25.8,24.8,30.20,NNW,330,0.0,6.0,96,0.00,,,0.00,Wunderground v.1.15,2013-01-25 18:56:00,
2013-01-25 13:59:00,25.8,24.8,30.20,NNW,330,0.0,6.0,96,0.00,,,0.00,Wunderground v.1.15,2013-01-25 18:59:00,
2013-01-25 14:02:00,25.8,24.8,30.20,NNW,330,1.0,2.0,96,0.00,,,0.00,Wunderground v.1.15,2013-01-25 19:02:00,
2013-01-25 14:04:00,25.8,24.8,30.20,NW,326,1.0,2.0,96,0.00,,,0.00,Wunderground v.1.15,2013-01-25 19:04:00,
2013-01-25 14:06:00,25.9,24.9,30.19,NNW,327,1.0,2.0,96,0.00,,,0.00,Wunderground v.1.15,2013-01-25 19:06:00,
2013-01-25 14:10:00,26.0,25.0,30.20,NW,325,1.0,1.0,96,0.00,,,0.00,Wunderground v.1.15,2013-01-25 19:10:00,
2013-01-25 14:13:00,26.1,25.1,30.20,NNW,329,1.0,2.0,96,0.00,,,0.00,Wunderground v.1.15,2013-01-25 19:13:00,
2013-01-25 14:15:00,26.2,25.2,30.19,NW,321,1.0,3.0,96,0.00,,,0.00,Wunderground v.1.15,2013-01-25 19:15:00,
2013-01-25 14:18:00,26.3,25.3,30.18,NW,314,1.0,3.0,96,0.00,,,0.00,Wunderground v.1.15,2013-01-25 19:18:00,
2013-01-25 14:19:00,26.3,25.3,30.18,NW,314,1.0,3.0,96,0.00,,,0.00,Wunderground v.1.15,2013-01-25 19:19:00,
2013-01-25 14:21:00,26.3,25.3,30.19,NNW,327,1.0,3.0,96,0.00,,,0.00,Wunderground v.1.15,2013-01-25 19:21:00,
2013-01-25 14:24:00,26.4,25.4,30.18,NW,316,2.0,3.0,96,0.00,,,0.00,Wunderground v.1.15,2013-01-25 19:24:00,
2013-01-25 14:26:00,26.4,25.4,30.18,NNW,333,1.0,3.0,96,0.00,,,0.00,Wunderground v.1.15,2013-01-25 19:26:00,
2013-01-25 14:28:00,26.4,25.4,30.19,NW,318,2.0,3.0,96,0.00,,,0.00,Wunderground v.1.15,2013-01-25 19:28:00,
2013-01-25 14:30:00,26.4,25.4,30.18,NW,321,2.0,2.0,96,0.00,,,0.00,Wunderground v.1.15,2013-01-25 19:30:00,
2013-01-25 14:31:00,26.4,25.4,30.19,NW,323,2.0,2.0,96,0.00,,,0.00,Wunderground v.1.15,2013-01-25 19:31:00,
2013-01-25 14:32:00,26.5,25.5,30.19,NW,321,2.0,3.0,96,0.00,,,0.00,Wunderground v.1.15,2013-01-25 19:32:00,
2013-01-25 14:36:00,26.5,25.5,30.19,NW,319,1.0,3.0,96,0.00,,,0.00,Wunderground v.1.15,2013-01-25 19:36:00,
2013-01-25 14:38:00,26.5,25.5,30.18,WNW,297,1.0,3.0,96,0.00,,,0.00,Wunderground v.1.15,2013-01-25 19:38:00,
2013-01-25 14:39:00,26.6,25.6,30.19,NW,317,1.0,3.0,96,0.00,,,0.00,Wunderground v.1.15,2013-01-25 19:39:00,
2013-01-25 14:40:00,26.6,25.6,30.19,NW,315,1.0,1.0,96,0.00,,,0.00,Wunderground v.1.15,2013-01-25 19:40:00,
2013-01-25 14:41:00,26.6,25.6,30.18,NW,315,1.0,2.0,96,0.00,,,0.00,Wunderground v.1.15,2013-01-25 19:41:00,
2013-01-25 14:44:00,26.6,25.6,30.18,NW,315,1.0,2.0,96,0.00,,,0.00,Wunderground v.1.15,2013-01-25 19:44:00,
2013-01-25 14:45:00,26.7,25.7,30.19,NW,315,1.0,2.0,96,0.00,,,0.00,Wunderground v.1.15,2013-01-25 19:45:00,
2013-01-25 14:46:00,26.7,25.7,30.19,NW,315,1.0,2.0,96,0.00,,,0.00,Wunderground v.1.15,2013-01-25 19:46:00,
2013-01-25 14:50:00,26.8,25.8,30.19,NW,315,1.0,1.0,96,0.00,,,0.00,Wunderground v.1.15,2013-01-25 19:50:00,
2013-01-25 14:53:00,26.8,25.8,30.18,NW,315,1.0,1.0,96,0.00,,,0.00,Wunderground v.1.15,2013-01-25 19:53:00,
2013-01-25 14:56:00,26.9,25.9,30.19,WNW,293,1.0,3.0,96,0.00,,,0.00,Wunderground v.1.15,2013-01-25 19:56:00,
2013-01-25 14:57:00,26.9,25.9,30.18,NW,315,1.0,3.0,96,0.00,,,0.00,Wunderground v.1.15,2013-01-25 19:57:00,
2013-01-25 15:00:00,27.0,26.0,30.18,NW,323,1.0,2.0,96,0.00,,,0.00,Wunderground v.1.15,2013-01-25 20:00:00,
2013-01-25 15:01:00,27.1,26.1,30.18,NW,323,1.0,2.0,96,0.00,,,0.00,Wunderground v.1.15,2013-01-25 20:01:00,
2013-01-25 15:03:00,27.1,26.1,30.18,WNW,296,1.0,2.0,96,0.00,,,0.00,Wunderground v.1.15,2013-01-25 20:03:00,
2013-01-25 15:06:00,27.2,26.2,30.18,NW,321,1.0,3.0,96,0.00,,,0.00,Wunderground v.1.15,2013-01-25 20:06:00,
2013-01-25 15:08:00,27.2,26.2,30.19,WNW,282,1.0,3.0,96,0.00,,,0.00,Wunderground v.1.15,2013-01-25 20:08:00,
2013-01-25 15:11:00,27.2,26.2,30.19,NW,313,2.0,3.0,96,0.00,,,0.00,Wunderground v.1.15,2013-01-25 20:11:00,
2013-01-25 15:15:00,27.2,26.2,30.19,WNW,302,3.0,5.0,96,0.00,,,0.00,Wunderground v.1.15,2013-01-25 20:15:00,
2013-01-25 15:16:00,27.1,26.1,30.19,NW,310,3.0,5.0,96,0.00,,,0.00,Wunderground v.1.15,2013-01-25 20:16:00,
2013-01-25 15:19:00,27.2,26.2,30.19,NW,318,4.0,5.0,96,0.00,,,0.00,Wunderground v.1.15,2013-01-25 20:19:00,
2013-01-25 15:20:00,27.2,26.2,30.19,WNW,293,4.0,4.0,96,0.00,,,0.00,Wunderground v.1.15,2013-01-25 20:20:00,
2013-01-25 15:23:00,27.3,26.3,30.19,NW,317,4.0,5.0,96,0.00,,,0.00,Wunderground v.1.15,2013-01-25 20:23:00,
2013-01-25 15:24:00,27.3,26.3,30.19,WNW,289,4.0,5.0,96,0.00,,,0.00,Wunderground v.1.15,2013-01-25 20:24:00,
2013-01-25 15:28:00,27.4,26.4,30.19,WNW,300,4.0,9.0,96,0.00,,,0.00,Wunderground v.1.15,2013-01-25 20:28:00,
2013-01-25 15:29:00,27.4,26.4,30.19,NW,310,4.0,7.0,96,0.00,,,0.00,Wunderground v.1.15,2013-01-25 20:29:00,
2013-01-25 15:33:00,27.3,26.3,30.19,NW,313,5.0,10.0,96,0.00,,,0.00,Wunderground v.1.15,2013-01-25 20:33:00,
2013-01-25 15:36:00,27.3,26.3,30.19,NW,326,6.0,10.0,96,0.00,,,0.00,Wunderground v.1.15,2013-01-25 20:36:00,
2013-01-25 15:38:00,27.3,26.3,30.19,NW,316,7.0,10.0,96,0.00,,,0.00,Wunderground v.1.15,2013-01-25 20:38:00,
2013-01-25 15:39:00,27.3,26.3,30.19,WNW,301,6.0,6.0,96,0.00,,,0.00,Wunderground v.1.15,2013-01-25 20:39:00,
2013-01-25 15:41:00,27.3,26.3,30.19,WNW,301,6.0,7.0,96,0.00,,,0.00,Wunderground v.1.15,2013-01-25 20:41:00,
2013-01-25 15:43:00,27.4,26.4,30.20,NW,318,6.0,7.0,96,0.00,,,0.00,Wunderground v.1.15,2013-01-25 20:43:00,
2013-01-25 15:49:00,27.4,26.4,30.20,WNW,291,5.0,7.0,96,0.00,,,0.00,Wunderground v.1.15,2013-01-25 20:49:00,
2013-01-25 15:54:00,27.3,26.3,30.20,NW,304,5.0,5.0,96,0.00,,,0.00,Wunderground v.1.15,2013-01-25 20:54:00,
2013-01-25 15:55:00,27.3,26.3,30.21,NW,317,5.0,5.0,96,0.00,,,0.00,Wunderground v.1.15,2013-01-25 20:55:00,
2013-01-25 15:56:00,27.3,26.1,30.20,NW,313,5.0,5.0,95,0.00,,,0.00,Wunderground v.1.15,2013-01-25 20:56:00,
2013-01-25 16:01:00,27.4,26.4,30.21,West,281,4.0,10.0,96,0.00,,,0.00,Wunderground v.1.15,2013-01-25 21:01:00,
2013-01-25 16:02:00,27.4,26.4,30.21,NW,323,5.0,10.0,96,0.00,,,0.00,Wunderground v.1.15,2013-01-25 21:02:00,
2013-01-25 16:04:00,27.4,26.4,30.21,NW,319,4.0,10.0,96,0.00,,,0.00,Wunderground v.1.15,2013-01-25 21:04:00,
2013-01-25 16:06:00,27.4,26.2,30.21,NNW,329,5.0,10.0,95,0.00,,,0.00,Wunderground v.1.15,2013-01-25 21:06:00,
2013-01-25 16:07:00,27.4,26.2,30.20,NNW,342,5.0,10.0,95,0.00,,,0.00,Wunderground v.1.15,2013-01-25 21:07:00,
2013-01-25 16:08:00,27.4,26.2,30.20,NW,316,5.0,10.0,95,0.00,,,0.00,Wunderground v.1.15,2013-01-25 21:08:00,
2013-01-25 16:10:00,27.4,26.2,30.20,NW,320,5.0,5.0,95,0.00,,,0.00,Wunderground v.1.15,2013-01-25 21:10:00,
2013-01-25 16:14:00,27.4,26.2,30.20,NW,313,4.0,5.0,95,0.00,,,0.00,Wunderground v.1.15,2013-01-25 21:14:00,
2013-01-25 16:15:00,27.4,26.2,30.20,NW,315,3.0,6.0,95,0.00,,,0.00,Wunderground v.1.15,2013-01-25 21:15:00,
2013-01-25 16:16:00,27.4,26.2,30.20,NW,309,3.0,6.0,95,0.00,,,0.00,Wunderground v.1.15,2013-01-25 21:16:00,
2013-01-25 16:20:00,27.4,26.2,30.21,WNW,300,3.0,3.0,95,0.00,,,0.00,Wunderground v.1.15,2013-01-25 21:20:00,
2013-01-25 16:21:00,27.4,26.2,30.21,NW,317,3.0,3.0,95,0.00,,,0.00,Wunderground v.1.15,2013-01-25 21:21:00,
2013-01-25 16:23:00,27.4,26.2,30.21,NW,312,2.0,5.0,95,0.00,,,0.00,Wunderground v.1.15,2013-01-25 21:23:00,
2013-01-25 16:24:00,27.4,26.2,30.21,NW,311,2.0,5.0,95,0.00,,,0.00,Wunderground v.1.15,2013-01-25 21:24:00,
2013-01-25 16:25:00,27.4,26.2,30.21,WNW,303,3.0,5.0,95,0.00,,,0.00,Wunderground v.1.15,2013-01-25 21:25:00,
2013-01-25 16:30:00,27.3,26.1,30.21,WNW,302,2.0,2.0,95,0.00,,,0.00,Wunderground v.1.15,2013-01-25 21:30:00,
2013-01-25 16:31:00,27.3,26.1,30.21,NW,323,2.0,2.0,95,0.00,,,0.00,Wunderground v.1.15,2013-01-25 21:31:00,
2013-01-25 16:34:00,27.3,26.1,30.21,NW,321,2.0,5.0,95,0.00,,,0.00,Wunderground v.1.15,2013-01-25 21:34:00,
2013-01-25 16:35:00,27.3,25.8,30.22,WNW,294,2.0,5.0,94,0.00,,,0.00,Wunderground v.1.15,2013-01-25 21:35:00,
2013-01-25 16:36:00,27.3,25.8,30.22,NNW,348,2.0,5.0,94,0.00,,,0.00,Wunderground v.1.15,2013-01-25 21:36:00,
2013-01-25 16:41:00,27.2,25.7,30.22,NW,317,4.0,6.0,94,0.00,,,0.00,Wunderground v.1.15,2013-01-25 21:41:00,
2013-01-25 16:43:00,27.2,25.7,30.22,NNW,334,4.0,6.0,94,0.00,,,0.00,Wunderground v.1.15,2013-01-25 21:43:00,
2013-01-25 16:46:00,27.1,25.6,30.22,NW,315,4.0,6.0,94,0.00,,,0.00,Wunderground v.1.15,2013-01-25 21:46:00,
2013-01-25 16:49:00,27.1,25.6,30.22,WNW,299,4.0,6.0,94,0.00,,,0.00,Wunderground v.1.15,2013-01-25 21:49:00,
2013-01-25 16:51:00,27.1,25.6,30.22,NW,320,4.0,6.0,94,0.00,,,0.00,Wunderground v.1.15,2013-01-25 21:51:00,
2013-01-25 16:52:00,27.1,25.6,30.22,NW,317,4.0,6.0,94,0.00,,,0.00,Wunderground v.1.15,2013-01-25 21:52:00,
2013-01-25 16:54:00,27.1,25.6,30.22,NW,308,3.0,6.0,94,0.00,,,0.00,Wunderground v.1.15,2013-01-25 21:54:00,
2013-01-25 16:56:00,27.1,25.6,30.22,WNW,300,3.0,6.0,94,0.00,,,0.00,Wunderground v.1.15,2013-01-25 21:56:00,
2013-01-25 16:58:00,27.1,25.6,30.22,NNW,333,3.0,6.0,94,0.00,,,0.00,Wunderground v.1.15,2013-01-25 21:58:00,
2013-01-25 17:01:00,27.0,25.5,30.22,NNW,329,3.0,4.0,94,0.00,,,0.00,Wunderground v.1.15,2013-01-25 22:01:00,
2013-01-25 17:04:00,27.0,25.5,30.22,NW,310,3.0,6.0,94,0.00,,,0.00,Wunderground v.1.15,2013-01-25 22:04:00,
2013-01-25 17:05:00,27.0,25.5,30.22,NW,325,3.0,6.0,94,0.00,,,0.00,Wunderground v.1.15,2013-01-25 22:05:00,
2013-01-25 17:08:00,27.0,25.5,30.22,WNW,301,3.0,6.0,94,0.00,,,0.00,Wunderground v.1.15,2013-01-25 22:08:00,
2013-01-25 17:09:00,27.0,25.5,30.22,NW,305,3.0,6.0,94,0.00,,,0.00,Wunderground v.1.15,2013-01-25 22:09:00,
2013-01-25 17:13:00,27.0,25.5,30.23,NW,321,2.0,4.0,94,0.00,,,0.00,Wunderground v.1.15,2013-01-25 22:13:00,
2013-01-25 17:14:00,27.0,25.5,30.23,NW,309,2.0,4.0,94,0.00,,,0.00,Wunderground v.1.15,2013-01-25 22:14:00,
2013-01-25 17:19:00,27.0,25.5,30.23,NNW,340,1.0,4.0,94,0.00,,,0.00,Wunderground v.1.15,2013-01-25 22:19:00,
2013-01-25 17:21:00,27.0,25.5,30.22,WNW,299,1.0,4.0,94,0.00,,,0.00,Wunderground v.1.15,2013-01-25 22:21:00,
2013-01-25 17:24:00,26.9,25.4,30.22,NW,304,2.0,4.0,94,0.00,,,0.00,Wunderground v.1.15,2013-01-25 22:24:00,
2013-01-25 17:26:00,26.9,25.4,30.22,WNW,301,2.0,4.0,94,0.00,,,0.00,Wunderground v.1.15,2013-01-25 22:26:00,
2013-01-25 17:27:00,26.9,25.4,30.23,NW,308,3.0,4.0,94,0.00,,,0.00,Wunderground v.1.15,2013-01-25 22:27:00,
2013-01-25 17:28:00,26.9,25.4,30.22,NW,318,3.0,4.0,94,0.00,,,0.00,Wunderground v.1.15,2013-01-25 22:28:00,
2013-01-25 17:31:00,26.9,25.4,30.23,NNW,336,2.0,3.0,94,0.00,,,0.00,Wunderground v.1.15,2013-01-25 22:31:00,
2013-01-25 17:32:00,26.9,25.4,30.22,NNW,336,2.0,3.0,94,0.00,,,0.00,Wunderground v.1.15,2013-01-25 22:32:00,
2013-01-25 17:33:00,26.9,25.4,30.23,NNW,336,2.0,3.0,94,0.00,,,0.00,Wunderground v.1.15,2013-01-25 22:33:00,
2013-01-25 17:37:00,26.9,25.4,30.23,NW,317,1.0,3.0,94,0.00,,,0.00,Wunderground v.1.15,2013-01-25 22:37:00,
2013-01-25 17:38:00,26.9,25.4,30.22,NW,316,0.0,3.0,94,0.00,,,0.00,Wunderground v.1.15,2013-01-25 22:38:00,
2013-01-25 17:39:00,26.9,25.4,30.22,NW,315,0.0,3.0,94,0.00,,,0.00,Wunderground v.1.15,2013-01-25 22:39:00,
2013-01-25 17:40:00,26.9,25.4,30.22,NW,315,0.0,0.0,94,0.00,,,0.00,Wunderground v.1.15,2013-01-25 22:40:00,
2013-01-25 17:44:00,26.9,25.4,30.22,NW,315,0.0,3.0,94,0.00,,,0.00,Wunderground v.1.15,2013-01-25 22:44:00,
2013-01-25 17:45:00,26.9,25.4,30.22,NW,311,1.0,3.0,94,0.00,,,0.00,Wunderground v.1.15,2013-01-25 22:45:00,
2013-01-25 17:48:00,26.8,25.3,30.22,WNW,294,1.0,3.0,94,0.00,,,0.00,Wunderground v.1.15,2013-01-25 22:48:00,
2013-01-25 17:49:00,26.8,25.3,30.22,WNW,288,1.0,3.0,94,0.00,,,0.00,Wunderground v.1.15,2013-01-25 22:49:00,
2013-01-25 17:51:00,26.8,25.3,30.22,NW,306,2.0,2.0,94,0.00,,,0.00,Wunderground v.1.15,2013-01-25 22:51:00,
2013-01-25 17:54:00,26.8,25.3,30.22,WNW,295,2.0,2.0,94,0.00,,,0.00,Wunderground v.1.15,2013-01-25 22:54:00,
2013-01-25 17:55:00,26.8,25.3,30.22,WNW,295,2.0,2.0,94,0.00,,,0.00,Wunderground v.1.15,2013-01-25 22:55:00,
2013-01-25 17:56:00,26.8,25.3,30.22,WNW,298,2.0,2.0,94,0.00,,,0.00,Wunderground v.1.15,2013-01-25 22:56:00,
2013-01-25 17:57:00,26.8,25.3,30.23,WNW,301,2.0,3.0,94,0.00,,,0.00,Wunderground v.1.15,2013-01-25 22:57:00,
2013-01-25 18:00:00,26.8,25.3,30.23,WNW,292,1.0,1.0,94,0.00,,,0.00,Wunderground v.1.15,2013-01-25 23:00:00,
2013-01-25 18:02:00,26.8,25.3,30.23,West,279,1.0,1.0,94,0.00,,,0.00,Wunderground v.1.15,2013-01-25 23:02:00,
2013-01-25 18:04:00,26.8,25.3,30.23,West,270,1.0,5.0,94,0.00,,,0.00,Wunderground v.1.15,2013-01-25 23:04:00,
2013-01-25 18:06:00,26.8,25.3,30.23,WNW,287,2.0,5.0,94,0.00,,,0.00,Wunderground v.1.15,2013-01-25 23:06:00,
2013-01-25 18:09:00,26.8,25.3,30.23,West,275,2.0,5.0,94,0.00,,,0.00,Wunderground v.1.15,2013-01-25 23:09:00,
2013-01-25 18:10:00,26.8,25.3,30.23,WNW,300,2.0,4.0,94,0.00,,,0.00,Wunderground v.1.15,2013-01-25 23:10:00,
2013-01-25 18:11:00,26.8,25.3,30.23,West,262,2.0,4.0,94,0.00,,,0.00,Wunderground v.1.15,2013-01-25 23:11:00,
2013-01-25 18:15:00,26.8,25.3,30.23,WNW,294,1.0,6.0,94,0.00,,,0.00,Wunderground v.1.15,2013-01-25 23:15:00,
2013-01-25 18:17:00,26.8,25.3,30.23,NW,304,1.0,6.0,94,0.00,,,0.00,Wunderground v.1.15,2013-01-25 23:17:00,
2013-01-25 18:18:00,26.8,25.3,30.23,WNW,302,1.0,6.0,94,0.00,,,0.00,Wunderground v.1.15,2013-01-25 23:18:00,
2013-01-25 18:20:00,26.8,25.3,30.23,SW,236,1.0,3.0,94,0.00,,,0.00,Wunderground v.1.15,2013-01-25 23:20:00,
2013-01-25 18:24:00,26.8,25.3,30.23,WNW,285,2.0,3.0,94,0.00,,,0.00,Wunderground v.1.15,2013-01-25 23:24:00,
2013-01-25 18:26:00,26.8,25.3,30.23,WNW,302,2.0,3.0,94,0.00,,,0.00,Wunderground v.1.15,2013-01-25 23:26:00,
2013-01-25 18:27:00,26.8,25.3,30.23,NW,305,2.0,3.0,94,0.00,,,0.00,Wunderground v.1.15,2013-01-25 23:27:00,
2013-01-25 18:28:00,26.8,25.3,30.24,NNW,328,2.0,3.0,94,0.00,,,0.00,Wunderground v.1.15,2013-01-25 23:28:00,
2013-01-25 18:31:00,26.8,25.3,30.23,WNW,286,2.0,2.0,94,0.00,,,0.00,Wunderground v.1.15,2013-01-25 23:31:00,
2013-01-25 18:32:00,26.8,25.3,30.24,WNW,286,1.0,2.0,94,0.00,,,0.00,Wunderground v.1.15,2013-01-25 23:32:00,
2013-01-25 18:33:00,26.8,25.3,30.23,WNW,286,1.0,2.0,94,0.00,,,0.00,Wunderground v.1.15,2013-01-25 23:33:00,
2013-01-25 18:37:00,26.8,25.3,30.24,WSW,254,1.0,4.0,94,0.00,,,0.00,Wunderground v.1.15,2013-01-25 23:37:00,
2013-01-25 18:39:00,26.8,25.3,30.24,NW,309,1.0,4.0,94,0.00,,,0.00,Wunderground v.1.15,2013-01-25 23:39:00,
2013-01-25 18:40:00,26.8,25.3,30.24,West,271,1.0,3.0,94,0.00,,,0.00,Wunderground v.1.15,2013-01-25 23:40:00,
2013-01-25 18:42:00,26.8,25.3,30.24,WNW,293,1.0,3.0,94,0.00,,,0.00,Wunderground v.1.15,2013-01-25 23:42:00,
2013-01-25 18:46:00,26.8,25.3,30.24,WNW,296,2.0,3.0,94,0.00,,,0.00,Wunderground v.1.15,2013-01-25 23:46:00,
2013-01-25 18:47:00,26.8,25.3,30.24,WNW,294,2.0,3.0,94,0.00,,,0.00,Wunderground v.1.15,2013-01-25 23:47:00,
2013-01-25 18:50:00,26.9,25.4,30.24,WNW,300,1.0,1.0,94,0.00,,,0.00,Wunderground v.1.15,2013-01-25 23:50:00,
2013-01-25 18:53:00,26.8,25.3,30.25,WNW,300,1.0,2.0,94,0.00,,,0.00,Wunderground v.1.15,2013-01-25 23:53:00,
2013-01-25 18:54:00,26.9,25.4,30.25,WNW,300,1.0,2.0,94,0.00,,,0.00,Wunderground v.1.15,2013-01-25 23:54:00,
2013-01-25 18:55:00,26.9,25.4,30.25,WNW,300,1.0,2.0,94,0.00,,,0.00,Wunderground v.1.15,2013-01-25 23:55:00,
2013-01-25 18:58:00,26.9,25.4,30.25,WNW,300,0.0,2.0,94,0.00,,,0.00,Wunderground v.1.15,2013-01-25 23:58:00,
2013-01-25 19:00:00,26.9,25.4,30.25,WNW,300,0.0,3.0,94,0.00,,,0.00,Wunderground v.1.15,2013-01-26 00:00:00,
2013-01-25 19:02:00,26.9,25.4,30.25,NW,305,0.0,3.0,94,0.00,,,0.00,Wunderground v.1.15,2013-01-26 00:02:00,
2013-01-25 19:03:00,26.9,25.4,30.25,NW,305,0.0,3.0,94,0.00,,,0.00,Wunderground v.1.15,2013-01-26 00:03:00,
2013-01-25 19:06:00,26.9,25.4,30.25,NW,305,0.0,3.0,94,0.00,,,0.00,Wunderground v.1.15,2013-01-26 00:06:00,
2013-01-25 19:08:00,26.9,25.4,30.25,NW,305,0.0,3.0,94,0.00,,,0.00,Wunderground v.1.15,2013-01-26 00:08:00,
2013-01-25 19:10:00,26.9,25.4,30.25,NW,306,1.0,1.0,94,0.00,,,0.00,Wunderground v.1.15,2013-01-26 00:10:00,
2013-01-25 19:11:00,26.9,25.4,30.25,NW,306,1.0,1.0,94,0.00,,,0.00,Wunderground v.1.15,2013-01-26 00:11:00,
2013-01-25 19:13:00,26.9,25.4,30.25,NW,306,0.0,1.0,94,0.00,,,0.00,Wunderground v.1.15,2013-01-26 00:13:00,
2013-01-25 19:14:00,26.9,25.4,30.25,WNW,302,0.0,4.0,94,0.00,,,0.00,Wunderground v.1.15,2013-01-26 00:14:00,
2013-01-25 19:19:00,26.9,25.4,30.26,WNW,282,1.0,4.0,94,0.00,,,0.00,Wunderground v.1.15,2013-01-26 00:19:00,
2013-01-25 19:21:00,26.9,25.4,30.26,NNW,338,1.0,1.0,94,0.00,,,0.00,Wunderground v.1.15,2013-01-26 00:21:00,
2013-01-25 19:22:00,27.0,25.5,30.26,NW,311,1.0,1.0,94,0.00,,,0.00,Wunderground v.1.15,2013-01-26 00:22:00,
2013-01-25 19:27:00,27.0,25.5,30.26,WNW,298,2.0,8.0,94,0.00,,,0.00,Wunderground v.1.15,2013-01-26 00:27:00,
2013-01-25 19:28:00,27.0,25.5,30.26,NW,310,3.0,8.0,94,0.00,,,0.00,Wunderground v.1.15,2013-01-26 00:28:00,
2013-01-25 19:33:00,27.0,25.5,30.26,NW,315,3.0,5.0,94,0.00,,,0.00,Wunderground v.1.15,2013-01-26 00:33:00,
2013-01-25 19:38:00,26.9,25.4,30.26,NW,311,3.0,5.0,94,0.00,,,0.00,Wunderground v.1.15,2013-01-26 00:38:00,
2013-01-25 19:40:00,27.0,25.5,30.26,NW,306,3.0,3.0,94,0.00,,,0.00,Wunderground v.1.15,2013-01-26 00:40:00,
2013-01-25 19:42:00,27.0,25.5,30.26,NW,304,3.0,3.0,94,0.00,,,0.00,Wunderground v.1.15,2013-01-26 00:42:00,
2013-01-25 19:43:00,26.9,25.4,30.26,WNW,292,3.0,3.0,94,0.00,,,0.00,Wunderground v.1.15,2013-01-26 00:43:00,
2013-01-25 19:45:00,26.9,25.4,30.26,WNW,300,3.0,4.0,94,0.00,,,0.00,Wunderground v.1.15,2013-01-26 00:45:00,
2013-01-25 19:49:00,27.0,25.5,30.26,NW,311,3.0,4.0,94,0.00,,,0.00,Wunderground v.1.15,2013-01-26 00:49:00,
2013-01-25 19:51:00,27.0,25.5,30.26,NW,309,3.0,3.0,94,0.00,,,0.00,Wunderground v.1.15,2013-01-26 00:51:00,
2013-01-25 19:53:00,26.9,25.4,30.27,NW,309,3.0,4.0,94,0.00,,,0.00,Wunderground v.1.15,2013-01-26 00:53:00,
2013-01-25 19:54:00,26.9,25.4,30.27,NW,311,3.0,4.0,94,0.00,,,0.00,Wunderground v.1.15,2013-01-26 00:54:00,
2013-01-25 19:56:00,26.9,25.4,30.27,NW,306,3.0,4.0,94,0.00,,,0.00,Wunderground v.1.15,2013-01-26 00:56:00,
2013-01-25 19:59:00,26.9,25.4,30.27,NW,310,3.0,4.0,94,0.00,,,0.00,Wunderground v.1.15,2013-01-26 00:59:00,
2013-01-25 20:01:00,26.9,25.4,30.27,WNW,297,4.0,4.0,94,0.00,,,0.00,Wunderground v.1.15,2013-01-26 01:01:00,
2013-01-25 20:03:00,27.0,25.5,30.27,NW,311,4.0,6.0,94,0.00,,,0.00,Wunderground v.1.15,2013-01-26 01:03:00,
2013-01-25 20:04:00,27.0,25.5,30.27,WNW,302,4.0,6.0,94,0.00,,,0.00,Wunderground v.1.15,2013-01-26 01:04:00,
2013-01-25 20:09:00,27.0,25.2,30.27,WNW,298,3.0,6.0,93,0.00,,,0.00,Wunderground v.1.15,2013-01-26 01:09:00,
2013-01-25 20:10:00,27.0,25.2,30.27,WNW,298,2.0,2.0,93,0.00,,,0.00,Wunderground v.1.15,2013-01-26 01:10:00,
2013-01-25 20:12:00,27.0,25.5,30.27,NW,314,2.0,3.0,94,0.00,,,0.00,Wunderground v.1.15,2013-01-26 01:12:00,
2013-01-25 20:14:00,26.9,25.4,30.27,NW,313,2.0,5.0,94,0.00,,,0.00,Wunderground v.1.15,2013-01-26 01:14:00,
2013-01-25 20:15:00,26.9,25.1,30.27,West,261,2.0,5.0,93,0.00,,,0.00,Wunderground v.1.15,2013-01-26 01:15:00,
2013-01-25 20:16:00,26.9,25.1,30.27,NW,304,2.0,5.0,93,0.00,,,0.00,Wunderground v.1.15,2013-01-26 01:16:00,
2013-01-25 20:17:00,27.0,25.2,30.27,West,275,2.0,5.0,93,0.00,,,0.00,Wunderground v.1.15,2013-01-26 01:17:00,
2013-01-25 20:21:00,27.0,25.2,30.27,NW,305,3.0,4.0,93,0.00,,,0.00,Wunderground v.1.15,2013-01-26 01:21:00,
2013-01-25 20:23:00,27.0,25.2,30.28,WNW,302,3.0,4.0,93,0.00,,,0.00,Wunderground v.1.15,2013-01-26 01:23:00,
2013-01-25 20:26:00,27.0,25.2,30.28,WNW,301,2.0,4.0,93,0.00,,,0.00,Wunderground v.1.15,2013-01-26 01:26:00,
2013-01-25 20:28:00,27.0,25.2,30.28,WNW,303,2.0,4.0,93,0.00,,,0.00,Wunderground v.1.15,2013-01-26 01:28:00,
2013-01-25 20:30:00,27.0,25.2,30.28,NW,310,2.0,2.0,93,0.00,,,0.00,Wunderground v.1.15,2013-01-26 01:30:00,
2013-01-25 20:33:00,27.0,25.2,30.28,NW,310,1.0,2.0,93,0.00,,,0.00,Wunderground v.1.15,2013-01-26 01:33:00,
2013-01-25 20:37:00,27.0,25.2,30.27,NW,309,1.0,2.0,93,0.00,,,0.00,Wunderground v.1.15,2013-01-26 01:37:00,
2013-01-25 20:39:00,27.0,25.2,30.27,NW,306,1.0,4.0,93,0.00,,,0.00,Wunderground v.1.15,2013-01-26 01:39:00,
2013-01-25 20:41:00,27.0,25.2,30.27,NW,317,1.0,2.0,93,0.00,,,0.00,Wunderground v.1.15,2013-01-26 01:41:00,
2013-01-25 20:45:00,27.0,25.5,30.28,NW,306,1.0,4.0,94,0.00,,,0.00,Wunderground v.1.15,2013-01-26 01:45:00,
2013-01-25 20:46:00,27.0,25.5,30.28,WNW,298,1.0,4.0,94,0.00,,,0.00,Wunderground v.1.15,2013-01-26 01:46:00,
2013-01-25 20:48:00,27.0,25.5,30.28,WNW,300,1.0,4.0,94,0.00,,,0.00,Wunderground v.1.15,2013-01-26 01:48:00,
2013-01-25 20:51:00,27.0,25.5,30.28,WNW,300,1.0,1.0,94,0.00,,,0.00,Wunderground v.1.15,2013-01-26 01:51:00,
2013-01-25 20:52:00,27.0,25.5,30.28,WNW,300,1.0,1.0,94,0.00,,,0.00,Wunderground v.1.15,2013-01-26 01:52:00,
2013-01-25 20:53:00,27.0,25.5,30.28,WNW,300,1.0,1.0,94,0.00,,,0.00,Wunderground v.1.15,2013-01-26 01:53:00,
2013-01-25 20:54:00,27.0,25.5,30.28,NW,311,1.0,2.0,94,0.00,,,0.00,Wunderground v.1.15,2013-01-26 01:54:00,
2013-01-25 20:57:00,27.0,25.5,30.28,WNW,298,1.0,4.0,94,0.00,,,0.00,Wunderground v.1.15,2013-01-26 01:57:00,
2013-01-25 20:59:00,27.1,25.6,30.28,WNW,298,1.0,4.0,94,0.00,,,0.00,Wunderground v.1.15,2013-01-26 01:59:00,
2013-01-25 21:00:00,27.1,25.6,30.28,WNW,298,1.0,3.0,94,0.00,,,0.00,Wunderground v.1.15,2013-01-26 02:00:00,
2013-01-25 21:01:00,27.0,25.5,30.28,WNW,298,1.0,3.0,94,0.00,,,0.00,Wunderground v.1.15,2013-01-26 02:01:00,
2013-01-25 21:05:00,27.1,25.6,30.28,WNW,299,1.0,3.0,94,0.00,,,0.00,Wunderground v.1.15,2013-01-26 02:05:00,
2013-01-25 21:07:00,27.1,25.6,30.29,NW,307,1.0,3.0,94,0.00,,,0.00,Wunderground v.1.15,2013-01-26 02:07:00,
2013-01-25 21:08:00,27.1,25.6,30.29,NW,304,1.0,3.0,94,0.00,,,0.00,Wunderground v.1.15,2013-01-26 02:08:00,
2013-01-25 21:10:00,27.1,25.6,30.29,WNW,299,1.0,1.0,94,0.00,,,0.00,Wunderground v.1.15,2013-01-26 02:10:00,
2013-01-25 21:13:00,27.1,25.6,30.29,WNW,301,1.0,3.0,94,0.00,,,0.00,Wunderground v.1.15,2013-01-26 02:13:00,
2013-01-25 21:15:00,27.1,25.6,30.29,NW,304,2.0,3.0,94,0.00,,,0.00,Wunderground v.1.15,2013-01-26 02:15:00,
2013-01-25 21:20:00,27.1,25.6,30.29,WNW,291,2.0,2.0,94,0.00,,,0.00,Wunderground v.1.15,2013-01-26 02:20:00,
2013-01-25 21:22:00,27.1,25.6,30.29,WNW,285,2.0,2.0,94,0.00,,,0.00,Wunderground v.1.15,2013-01-26 02:22:00,
2013-01-25 21:23:00,27.1,25.6,30.29,WNW,285,2.0,3.0,94,0.00,,,0.00,Wunderground v.1.15,2013-01-26 02:23:00,
2013-01-25 21:25:00,27.2,25.7,30.29,WNW,283,1.0,3.0,94,0.00,,,0.00,Wunderground v.1.15,2013-01-26 02:25:00,
2013-01-25 21:26:00,27.1,25.6,30.29,NW,304,1.0,3.0,94,0.00,,,0.00,Wunderground v.1.15,2013-01-26 02:26:00,
2013-01-25 21:30:00,27.2,25.7,30.29,WNW,300,2.0,6.0,94,0.00,,,0.00,Wunderground v.1.15,2013-01-26 02:30:00,
2013-01-25 21:31:00,27.2,25.7,30.29,NW,309,3.0,6.0,94,0.00,,,0.00,Wunderground v.1.15,2013-01-26 02:31:00,
2013-01-25 21:33:00,27.2,25.7,30.29,WNW,290,2.0,6.0,94,0.00,,,0.00,Wunderground v.1.15,2013-01-26 02:33:00,
2013-01-25 21:37:00,27.2,25.7,30.29,WNW,298,2.0,6.0,94,0.00,,,0.00,Wunderground v.1.15,2013-01-26 02:37:00,
2013-01-25 21:40:00,27.2,25.7,30.29,WNW,302,2.0,2.0,94,0.00,,,0.00,Wunderground v.1.15,2013-01-26 02:40:00,
2013-01-25 21:41:00,27.3,25.8,30.29,West,277,2.0,4.0,94,0.00,,,0.00,Wunderground v.1.15,2013-01-26 02:41:00,
2013-01-25 21:43:00,27.3,25.8,30.29,NW,304,3.0,4.0,94,0.00,,,0.00,Wunderground v.1.15,2013-01-26 02:43:00,
2013-01-25 21:45:00,27.4,25.9,30.29,WNW,303,3.0,7.0,94,0.00,,,0.00,Wunderground v.1.15,2013-01-26 02:45:00,
2013-01-25 21:47:00,27.4,25.9,30.29,NW,325,3.0,7.0,94,0.00,,,0.00,Wunderground v.1.15,2013-01-26 02:47:00,
2013-01-25 21:48:00,27.4,25.9,30.29,WNW,300,4.0,7.0,94,0.00,,,0.00,Wunderground v.1.15,2013-01-26 02:48:00,
2013-01-25 21:50:00,27.4,25.9,30.29,WNW,299,4.0,4.0,94,0.00,,,0.00,Wunderground v.1.15,2013-01-26 02:50:00,
2013-01-25 21:53:00,27.4,25.9,30.30,NW,306,3.0,4.0,94,0.00,,,0.00,Wunderground v.1.15,2013-01-26 02:53:00,
2013-01-25 21:55:00,27.4,25.9,30.30,NW,314,4.0,4.0,94,0.00,,,0.00,Wunderground v.1.15,2013-01-26 02:55:00,
2013-01-25 21:57:00,27.5,26.0,30.30,NW,315,3.0,4.0,94,0.00,,,0.00,Wunderground v.1.15,2013-01-26 02:57:00,
2013-01-25 22:00:00,27.5,26.0,30.30,NW,306,3.0,3.0,94,0.00,,,0.00,Wunderground v.1.15,2013-01-26 03:00:00,
2013-01-25 22:02:00,27.5,26.0,30.30,NW,304,3.0,3.0,94,0.00,,,0.00,Wunderground v.1.15,2013-01-26 03:02:00,
2013-01-25 22:03:00,27.5,26.0,30.30,NW,311,3.0,3.0,94,0.00,,,0.00,Wunderground v.1.15,2013-01-26 03:03:00,
2013-01-25 22:06:00,27.6,26.1,30.30,NW,307,2.0,3.0,94,0.00,,,0.00,Wunderground v.1.15,2013-01-26 03:06:00,
2013-01-25 22:07:00,27.6,26.1,30.30,NW,316,2.0,3.0,94,0.00,,,0.00,Wunderground v.1.15,2013-01-26 03:07:00,
2013-01-25 22:09:00,27.6,26.1,30.30,WNW,301,2.0,4.0,94,0.00,,,0.00,Wunderground v.1.15,2013-01-26 03:09:00,
2013-01-25 22:12:00,27.6,26.1,30.30,WNW,296,2.0,3.0,94,0.00,,,0.00,Wunderground v.1.15,2013-01-26 03:12:00,
2013-01-25 22:14:00,27.6,26.1,30.30,WNW,303,3.0,4.0,94,0.00,,,0.00,Wunderground v.1.15,2013-01-26 03:14:00,
2013-01-25 22:16:00,27.6,26.1,30.30,NW,319,3.0,4.0,94,0.00,,,0.00,Wunderground v.1.15,2013-01-26 03:16:00,
2013-01-25 22:17:00,27.6,26.1,30.30,NW,311,2.0,4.0,94,0.00,,,0.00,Wunderground v.1.15,2013-01-26 03:17:00,
2013-01-25 22:19:00,27.6,26.1,30.30,WNW,283,2.0,4.0,94,0.00,,,0.00,Wunderground v.1.15,2013-01-26 03:19:00,
2013-01-25 22:23:00,27.6,26.1,30.30,NW,305,2.0,3.0,94,0.00,,,0.00,Wunderground v.1.15,2013-01-26 03:23:00,
2013-01-25 22:24:00,27.6,26.1,30.30,WNW,293,1.0,3.0,94,0.00,,,0.00,Wunderground v.1.15,2013-01-26 03:24:00,
2013-01-25 22:25:00,27.6,26.1,30.30,WNW,301,1.0,5.0,94,0.00,,,0.00,Wunderground v.1.15,2013-01-26 03:25:00,
2013-01-25 22:26:00,27.6,26.1,30.30,WNW,300,1.0,5.0,94,0.00,,,0.00,Wunderground v.1.15,2013-01-26 03:26:00,
2013-01-25 22:31:00,27.7,26.2,30.31,NW,313,2.0,3.0,94,0.00,,,0.00,Wunderground v.1.15,2013-01-26 03:31:00,
2013-01-25 22:33:00,27.7,26.2,30.30,NW,318,2.0,3.0,94,0.00,,,0.00,Wunderground v.1.15,2013-01-26 03:33:00,
2013-01-25 22:34:00,27.7,26.2,30.30,NW,325,2.0,3.0,94,0.00,,,0.00,Wunderground v.1.15,2013-01-26 03:34:00,
2013-01-25 22:39:00,27.7,26.2,30.31,NW,310,2.0,4.0,94,0.00,,,0.00,Wunderground v.1.15,2013-01-26 03:39:00,
2013-01-25 22:40:00,27.8,26.3,30.31,NW,309,2.0,3.0,94,0.00,,,0.00,Wunderground v.1.15,2013-01-26 03:40:00,
2013-01-25 22:45:00,27.8,26.3,30.31,NW,306,2.0,3.0,94,0.00,,,0.00,Wunderground v.1.15,2013-01-26 03:45:00,
2013-01-25 22:47:00,27.8,26.3,30.31,NW,304,2.0,5.0,94,0.00,,,0.00,Wunderground v.1.15,2013-01-26 03:47:00,
2013-01-25 22:48:00,27.8,26.3,30.32,NW,315,2.0,5.0,94,0.00,,,0.00,Wunderground v.1.15,2013-01-26 03:48:00,
2013-01-25 22:49:00,27.8,26.3,30.32,NW,308,2.0,5.0,94,0.00,,,0.00,Wunderground v.1.15,2013-01-26 03:49:00,
2013-01-25 22:51:00,27.8,26.3,30.32,NW,315,2.0,4.0,94,0.00,,,0.00,Wunderground v.1.15,2013-01-26 03:51:00,
2013-01-25 22:53:00,27.8,26.3,30.32,WNW,289,2.0,4.0,94,0.00,,,0.00,Wunderground v.1.15,2013-01-26 03:53:00,
2013-01-25 22:55:00,27.8,26.3,30.32,WNW,303,2.0,4.0,94,0.00,,,0.00,Wunderground v.1.15,2013-01-26 03:55:00,
2013-01-25 22:56:00,27.8,26.3,30.32,WNW,303,2.0,4.0,94,0.00,,,0.00,Wunderground v.1.15,2013-01-26 03:56:00,
2013-01-25 22:57:00,27.8,26.3,30.32,NNW,327,2.0,4.0,94,0.00,,,0.00,Wunderground v.1.15,2013-01-26 03:57:00,
2013-01-25 23:01:00,27.8,26.3,30.32,NW,311,1.0,3.0,94,0.00,,,0.00,Wunderground v.1.15,2013-01-26 04:01:00,
2013-01-25 23:06:00,27.9,26.4,30.32,NW,309,1.0,8.0,94,0.00,,,0.00,Wunderground v.1.15,2013-01-26 04:06:00,
2013-01-25 23:08:00,27.9,26.1,30.32,WNW,303,2.0,8.0,93,0.00,,,0.00,Wunderground v.1.15,2013-01-26 04:08:00,
2013-01-25 23:10:00,27.9,26.1,30.32,WNW,303,1.0,1.0,93,0.00,,,0.00,Wunderground v.1.15,2013-01-26 04:10:00,
2013-01-25 23:15:00,27.9,26.1,30.32,WNW,303,1.0,8.0,93,0.00,,,0.00,Wunderground v.1.15,2013-01-26 04:15:00,
2013-01-25 23:17:00,27.9,26.1,30.32,WNW,296,0.0,8.0,93,0.00,,,0.00,Wunderground v.1.15,2013-01-26 04:17:00,
2013-01-25 23:19:00,27.9,26.1,30.32,WNW,286,0.0,8.0,93,0.00,,,0.00,Wunderground v.1.15,2013-01-26 04:19:00,
2013-01-25 23:21:00,27.9,26.1,30.32,WNW,302,0.0,8.0,93,0.00,,,0.00,Wunderground v.1.15,2013-01-26 04:21:00,
2013-01-25 23:23:00,27.9,26.1,30.32,WNW,302,0.0,8.0,93,0.00,,,0.00,Wunderground v.1.15,2013-01-26 04:23:00,
2013-01-25 23:24:00,27.9,26.1,30.33,WNW,302,0.0,8.0,93,0.00,,,0.00,Wunderground v.1.15,2013-01-26 04:24:00,
2013-01-25 23:26:00,27.9,26.1,30.33,WNW,302,0.0,8.0,93,0.00,,,0.00,Wunderground v.1.15,2013-01-26 04:26:00,
2013-01-25 23:29:00,27.9,26.1,30.32,WNW,302,0.0,8.0,93,0.00,,,0.00,Wunderground v.1.15,2013-01-26 04:29:00,
2013-01-25 23:30:00,27.9,26.1,30.32,WNW,283,0.0,8.0,93,0.00,,,0.00,Wunderground v.1.15,2013-01-26 04:30:00,
2013-01-25 23:31:00,27.9,26.1,30.32,WNW,286,0.0,8.0,93,0.00,,,0.00,Wunderground v.1.15,2013-01-26 04:31:00,
2013-01-25 23:35:00,27.8,26.0,30.32,WNW,290,0.0,8.0,93,0.00,,,0.00,Wunderground v.1.15,2013-01-26 04:35:00,
2013-01-25 23:37:00,27.8,26.0,30.32,WNW,290,0.0,8.0,93,0.00,,,0.00,Wunderground v.1.15,2013-01-26 04:37:00,
2013-01-25 23:40:00,27.9,26.1,30.32,WNW,295,0.0,8.0,93,0.00,,,0.00,Wunderground v.1.15,2013-01-26 04:40:00,
2013-01-25 23:41:00,27.8,26.0,30.33,NW,307,0.0,8.0,93,0.00,,,0.00,Wunderground v.1.15,2013-01-26 04:41:00,
2013-01-25 23:43:00,27.9,26.1,30.33,WNW,292,0.0,8.0,93,0.00,,,0.00,Wunderground v.1.15,2013-01-26 04:43:00,
2013-01-25 23:46:00,27.9,26.1,30.33,WNW,292,0.0,8.0,93,0.00,,,0.00,Wunderground v.1.15,2013-01-26 04:46:00,
2013-01-25 23:47:00,27.9,26.1,30.33,WNW,292,0.0,8.0,93,0.00,,,0.00,Wunderground v.1.15,2013-01-26 04:47:00,
2013-01-25 23:51:00,27.9,26.1,30.33,WNW,295,0.0,8.0,93,0.00,,,0.00,Wunderground v.1.15,2013-01-26 04:51:00,
2013-01-25 23:52:00,27.9,26.1,30.33,WNW,298,1.0,8.0,93,0.00,,,0.00,Wunderground v.1.15,2013-01-26 04:52:00,
2013-01-25 23:53:00,27.9,26.1,30.33,WNW,300,1.0,8.0,93,0.00,,,0.00,Wunderground v.1.15,2013-01-26 04:53:00,
2013-01-25 23:59:00,28.0,26.0,30.33,WNW,301,1.0,8.0,92,0.00,,,0.00,Wunderground v.1.15,2013-01-26 04:59:00,